N2CPW Weather Reports


time (UTC)temp
F
wind
direction
speed
knots
gust
knots
rain 1hr
in
rain 24hr
in
rain mn
in
humidity
%
barometer
mb
20260505165355 80 192 3.5 0.0 0.00 0.00 0.00 41 1011.1
20260505165231 80 221 3.5 0.0 0.00 0.00 0.00 41 1011.1
20260505165154 80 196 3.5 0.0 0.00 0.00 0.00 41 1011.1
20260505165038 80 209 3.5 0.0 0.00 0.00 0.00 41 1011.1
20260505165000 80 231 3.5 0.0 0.00 0.00 0.00 41 1011.1
20260505164844 80 176 3.5 0.0 0.00 0.00 0.00 41 1011.1
20260505164804 80 197 3.5 0.0 0.00 0.00 0.00 40 1011.1
20260505164642 81 155 3.5 0.0 0.00 0.00 0.00 41 1011.1
20260505164544 80 284 3.5 0.0 0.00 0.00 0.00 41 1011.1
20260505164440 80 103 4.3 0.0 0.00 0.00 0.00 41 1011.1
20260505164342 80 176 4.3 0.0 0.00 0.00 0.00 41 1011.5
20260505164239 80 178 4.3 0.0 0.00 0.00 0.00 41 1011.5
20260505164125 80 134 5.2 0.0 0.00 0.00 0.00 42 1011.5
20260505164046 80 212 5.2 0.0 0.00 0.00 0.00 42 1011.5
20260505164008 80 184 5.2 0.0 0.00 0.00 0.00 42 1011.5
20260505163825 80 194 6.1 0.0 0.00 0.00 0.00 42 1011.5
20260505163728 79 171 6.1 0.0 0.00 0.00 0.00 42 1011.5
20260505163629 79 154 6.1 0.0 0.00 0.00 0.00 42 1011.5
20260505163535 79 162 5.2 0.0 0.00 0.00 0.00 42 1011.5
20260505163433 79 240 5.2 0.0 0.00 0.00 0.00 42 1011.5
20260505163334 79 257 4.3 0.0 0.00 0.00 0.00 42 1011.5
20260505163233 79 100 4.3 0.0 0.00 0.00 0.00 42 1011.5
20260505163135 79 181 4.3 0.0 0.00 0.00 0.00 42 1011.5
20260505163033 79 247 4.3 0.0 0.00 0.00 0.00 42 1011.5
20260505162937 79 198 3.5 0.0 0.00 0.00 0.00 42 1011.5
20260505162842 79 184 2.6 0.0 0.00 0.00 0.00 42 1011.6
20260505162744 79 215 2.6 0.0 0.00 0.00 0.00 42 1011.6
20260505162641 79 211 2.6 0.0 0.00 0.00 0.00 43 1011.6
20260505162543 79 164 2.6 0.0 0.00 0.00 0.00 43 1011.6
20260505162502 79 206 2.6 0.0 0.00 0.00 0.00 44 1011.6
20260505162404 79 190 3.5 0.0 0.00 0.00 0.00 44 1011.6
20260505162221 79 184 4.3 0.0 0.00 0.00 0.00 43 1011.6
20260505162129 79 184 4.3 0.0 0.00 0.00 0.00 43 1011.6
20260505162031 78 170 4.3 0.0 0.00 0.00 0.00 44 1011.6
20260505161951 78 160 5.2 0.0 0.00 0.00 0.00 43 1011.6
20260505161847 78 151 5.2 0.0 0.00 0.00 0.00 43 1011.6
20260505161727 78 206 6.1 0.0 0.00 0.00 0.00 43 1011.6
20260505161628 78 185 6.1 0.0 0.00 0.00 0.00 43 1011.6
20260505161530 78 183 7.0 0.0 0.00 0.00 0.00 44 1011.6
20260505161440 78 191 7.0 0.0 0.00 0.00 0.00 43 1011.6
20260505161405 78 196 7.0 0.0 0.00 0.00 0.00 44 1011.9
20260505161224 78 197 6.1 0.0 0.00 0.00 0.00 44 1011.9
20260505161145 78 3 6.1 0.0 0.00 0.00 0.00 44 1011.9
20260505161043 78 175 6.1 0.0 0.00 0.00 0.00 44 1011.9
20260505160943 78 217 6.1 0.0 0.00 0.00 0.00 44 1011.9
20260505160840 78 233 6.1 0.0 0.00 0.00 0.00 44 1011.9
20260505160725 78 195 5.2 0.0 0.00 0.00 0.00 44 1011.9
20260505160647 78 201 5.2 0.0 0.00 0.00 0.00 44 1011.9
20260505160604 78 277 5.2 0.0 0.00 0.00 0.00 44 1011.9
20260505160443 78 188 4.3 0.0 0.00 0.00 0.00 44 1011.9
20260505160344 78 217 4.3 0.0 0.00 0.00 0.00 44 1011.9
20260505160224 78 207 4.3 0.0 0.00 0.00 0.00 44 1011.9
20260505160129 78 205 4.3 0.0 0.00 0.00 0.00 44 1011.9
20260505153330 77 151 4.3 0.0 0.00 0.00 0.00 46 1012.1
20260505153227 77 186 5.2 0.0 0.00 0.00 0.00 46 1012.1
20260505153132 77 189 5.2 0.0 0.00 0.00 0.00 46 1012.1
20260505153055 77 180 4.3 0.0 0.00 0.00 0.00 46 1012.1
20260505152935 77 201 3.5 0.0 0.00 0.00 0.00 46 1012.1
20260505152832 77 183 3.5 0.0 0.00 0.00 0.00 46 1012.0
20260505152733 77 201 3.5 0.0 0.00 0.00 0.00 46 1012.0
20260505152631 77 190 3.5 0.0 0.00 0.00 0.00 45 1012.0
20260505152536 77 212 3.5 0.0 0.00 0.00 0.00 46 1012.0
20260505152438 77 192 3.5 0.0 0.00 0.00 0.00 46 1012.0
20260505152340 77 210 3.5 0.0 0.00 0.00 0.00 46 1012.0
20260505152238 77 195 3.5 0.0 0.00 0.00 0.00 46 1012.0
20260505152140 77 217 4.3 0.0 0.00 0.00 0.00 47 1012.0
20260505152038 77 132 4.3 0.0 0.00 0.00 0.00 46 1012.0
20260505151939 77 132 5.2 0.0 0.00 0.00 0.00 47 1012.0
20260505151824 77 112 4.3 0.0 0.00 0.00 0.00 47 1012.0
20260505151726 77 170 4.3 0.0 0.00 0.00 0.00 47 1012.0
20260505151628 77 174 4.3 0.0 0.00 0.00 0.00 46 1012.0
20260505151530 77 147 4.3 0.0 0.00 0.00 0.00 46 1012.0
20260505151430 77 118 4.3 0.0 0.00 0.00 0.00 46 1012.0
20260505151351 77 172 3.5 0.0 0.00 0.00 0.00 46 1012.0
20260505151229 77 178 3.5 0.0 0.00 0.00 0.00 46 1012.0
20260505151134 77 169 2.6 0.0 0.00 0.00 0.00 46 1012.0
20260505151053 77 201 2.6 0.0 0.00 0.00 0.00 46 1012.0
20260505150935 77 174 2.6 0.0 0.00 0.00 0.00 45 1012.0
20260505150857 77 176 2.6 0.0 0.00 0.00 0.00 45 1012.0
20260505150758 77 182 2.6 0.0 0.00 0.00 0.00 45 1012.0
20260505150639 77 176 2.6 0.0 0.00 0.00 0.00 45 1012.0
20260505150604 77 142 1.7 0.0 0.00 0.00 0.00 47 1012.0
20260505150439 77 190 2.6 0.0 0.00 0.00 0.00 47 1012.0
20260505150344 76 160 2.6 0.0 0.00 0.00 0.00 47 1012.0
20260505150243 76 174 3.5 0.0 0.00 0.00 0.00 47 1012.0
20260505150124 76 186 3.5 0.0 0.00 0.00 0.00 47 1012.0
20260505140545 72 242 5.2 0.0 0.00 0.00 0.00 52 1012.6
20260505140426 72 211 4.3 0.0 0.00 0.00 0.00 52 1012.6
20260505140351 72 212 3.5 0.0 0.00 0.00 0.00 53 1012.6
20260505140229 72 171 3.5 0.0 0.00 0.00 0.00 53 1012.6
20260505140132 72 197 3.5 0.0 0.00 0.00 0.00 53 1012.6
20260505130233 68 197 3.5 0.0 0.00 0.00 0.00 60 1012.6
20260505130134 68 197 3.5 0.0 0.00 0.00 0.00 61 1012.6
20260505125032 67 216 3.5 0.0 0.00 0.00 0.00 64 1012.5
20260505124954 67 169 3.5 0.0 0.00 0.00 0.00 64 1012.5
20260505124829 67 187 2.6 0.0 0.00 0.00 0.00 64 1012.5
20260505124731 67 161 2.6 0.0 0.00 0.00 0.00 63 1012.5
20260505124629 67 153 2.6 0.0 0.00 0.00 0.00 63 1012.5
20260505124530 67 187 2.6 0.0 0.00 0.00 0.00 63 1012.5
20260505124430 67 110 2.6 0.0 0.00 0.00 0.00 64 1012.5
20260505124335 67 170 2.6 0.0 0.00 0.00 0.00 64 1012.5
20260505124254 67 198 2.6 0.0 0.00 0.00 0.00 64 1012.5
20260505124134 67 215 2.6 0.0 0.00 0.00 0.00 64 1012.5
20260505124032 67 217 2.6 0.0 0.00 0.00 0.00 64 1012.5
20260505123937 67 183 2.6 0.0 0.00 0.00 0.00 64 1012.5
20260505123838 67 155 3.5 0.0 0.00 0.00 0.00 64 1012.5
20260505123740 67 122 2.6 0.0 0.00 0.00 0.00 65 1012.5
20260505123642 67 192 2.6 0.0 0.00 0.00 0.00 65 1012.5
20260505123543 67 208 2.6 0.0 0.00 0.00 0.00 64 1012.5
20260505123424 67 203 1.7 0.0 0.00 0.00 0.00 65 1012.5
20260505123324 67 174 1.7 0.0 0.00 0.00 0.00 65 1012.5
20260505123226 66 186 2.6 0.0 0.00 0.00 0.00 65 1012.5
20260505123127 66 189 2.6 0.0 0.00 0.00 0.00 65 1012.5
20260505123033 66 187 2.6 0.0 0.00 0.00 0.00 65 1012.5
20260505122958 66 190 2.6 0.0 0.00 0.00 0.00 66 1012.5
20260505122835 66 232 1.7 0.0 0.00 0.00 0.00 65 1012.6
20260505122735 66 193 1.7 0.0 0.00 0.00 0.00 66 1012.6
20260505122633 66 205 1.7 0.0 0.00 0.00 0.00 66 1012.6
20260505122536 66 178 1.7 0.0 0.00 0.00 0.00 67 1012.6
20260505122437 66 163 1.7 0.0 0.00 0.00 0.00 67 1012.6
20260505122342 66 172 1.7 0.0 0.00 0.00 0.00 67 1012.6
20260505122305 66 191 1.7 0.0 0.00 0.00 0.00 67 1012.6
20260505122205 65 190 1.7 0.0 0.00 0.00 0.00 67 1012.6
20260505122023 65 140 1.7 0.0 0.00 0.00 0.00 67 1012.6
20260505121947 65 177 1.7 0.0 0.00 0.00 0.00 68 1012.6
20260505121825 65 170 1.7 0.0 0.00 0.00 0.00 68 1012.6
20260505121727 65 201 1.7 0.0 0.00 0.00 0.00 68 1012.6
20260505121628 65 242 1.7 0.0 0.00 0.00 0.00 68 1012.6
20260505121531 65 174 1.7 0.0 0.00 0.00 0.00 68 1012.6
20260505121430 65 184 1.7 0.0 0.00 0.00 0.00 69 1012.6
20260505121331 65 179 0.9 0.0 0.00 0.00 0.00 69 1012.5
20260505121250 65 188 0.9 0.0 0.00 0.00 0.00 69 1012.5
20260505121131 65 223 0.9 0.0 0.00 0.00 0.00 70 1012.5
20260505121034 65 198 0.9 0.0 0.00 0.00 0.00 69 1012.5
20260505120939 65 188 0.0 0.0 0.00 0.00 0.00 69 1012.5
20260505120820 65 174 0.0 0.0 0.00 0.00 0.00 70 1012.5
20260505120746 65 219 0.0 0.0 0.00 0.00 0.00 70 1012.5
20260505120647 64 185 0.0 0.0 0.00 0.00 0.00 70 1012.5
20260505120606 64 185 0.0 0.0 0.00 0.00 0.00 70 1012.5
20260505120504 64 183 0.0 0.0 0.00 0.00 0.00 71 1012.5
20260505120345 64 186 0.0 0.0 0.00 0.00 0.00 71 1012.5
20260505120228 64 186 0.0 0.0 0.00 0.00 0.00 71 1012.5
20260505120131 64 190 0.0 0.0 0.00 0.00 0.00 71 1012.5
20260505120049 64 191 0.0 0.0 0.00 0.00 0.00 71 1012.5
20260505115930 64 190 0.0 0.0 0.00 0.00 0.00 71 1012.5
20260505115829 64 187 0.0 0.0 0.00 0.00 0.00 71 1012.5
20260505115730 64 186 0.0 0.0 0.00 0.00 0.00 71 1012.5
20260505115631 63 278 0.0 0.0 0.00 0.00 0.00 72 1012.5
20260505115537 63 280 0.0 0.0 0.00 0.00 0.00 72 1012.5
20260505115435 63 280 0.0 0.0 0.00 0.00 0.00 72 1012.5
20260505115336 63 283 0.0 0.0 0.00 0.00 0.00 73 1012.5
20260505115234 63 284 0.0 0.0 0.00 0.00 0.00 72 1012.5
20260505115136 63 284 0.0 0.0 0.00 0.00 0.00 73 1012.5
20260505115055 63 285 0.0 0.0 0.00 0.00 0.00 72 1012.5
20260505114953 63 323 0.0 0.0 0.00 0.00 0.00 73 1012.5
20260505114830 63 325 0.0 0.0 0.00 0.00 0.00 73 1012.5
20260505114740 63 326 0.0 0.0 0.00 0.00 0.00 73 1012.5
20260505114638 63 326 0.0 0.0 0.00 0.00 0.00 74 1012.5
20260505114540 62 328 0.0 0.0 0.00 0.00 0.00 74 1012.5
20260505114437 62 328 0.0 0.0 0.00 0.00 0.00 74 1012.5
20260505114339 62 331 0.0 0.0 0.00 0.00 0.00 74 1012.4
20260505114237 62 334 0.0 0.0 0.00 0.00 0.00 75 1012.4
20260505114143 62 336 0.0 0.0 0.00 0.00 0.00 75 1012.4
20260505114041 62 337 0.0 0.0 0.00 0.00 0.00 75 1012.4
20260505113943 62 335 0.0 0.0 0.00 0.00 0.00 75 1012.4
20260505113845 62 334 0.0 0.0 0.00 0.00 0.00 75 1012.4
20260505113806 61 322 0.0 0.0 0.00 0.00 0.00 76 1012.4
20260505113643 61 322 0.0 0.0 0.00 0.00 0.00 76 1012.4
20260505113544 61 322 0.0 0.0 0.00 0.00 0.00 76 1012.4
20260505113425 61 323 0.0 0.0 0.00 0.00 0.00 76 1012.4
20260505113347 61 323 0.0 0.0 0.00 0.00 0.00 76 1012.4
20260505113245 61 323 0.0 0.0 0.00 0.00 0.00 77 1012.4
20260505113145 61 323 0.0 0.0 0.00 0.00 0.00 77 1012.4
20260505113024 60 323 0.0 0.0 0.00 0.00 0.00 77 1012.4
20260505112928 60 323 0.0 0.0 0.00 0.00 0.00 77 1012.4
20260505112850 60 323 0.0 0.0 0.00 0.00 0.00 77 1012.5
20260505112751 60 323 0.0 0.0 0.00 0.00 0.00 77 1012.5
20260505112633 60 323 0.0 0.0 0.00 0.00 0.00 78 1012.5
20260505112534 60 323 0.0 0.0 0.00 0.00 0.00 78 1012.5
20260505112431 60 322 0.0 0.0 0.00 0.00 0.00 78 1012.5
20260505112333 60 322 0.0 0.0 0.00 0.00 0.00 79 1012.5
20260505112231 59 322 0.0 0.0 0.00 0.00 0.00 79 1012.5
20260505112133 59 322 0.0 0.0 0.00 0.00 0.00 79 1012.5
20260505112038 59 322 0.0 0.0 0.00 0.00 0.00 79 1012.5
20260505111939 59 322 0.0 0.0 0.00 0.00 0.00 79 1012.5
20260505111840 59 322 0.0 0.0 0.00 0.00 0.00 79 1012.5
20260505111741 59 322 0.0 0.0 0.00 0.00 0.00 80 1012.5
20260505111643 59 322 0.0 0.0 0.00 0.00 0.00 80 1012.5
20260505111606 59 322 0.0 0.0 0.00 0.00 0.00 80 1012.5
20260505111424 59 321 0.0 0.0 0.00 0.00 0.00 80 1012.5
20260505111331 59 321 0.0 0.0 0.00 0.00 0.00 80 1012.6
20260505111232 59 321 0.0 0.0 0.00 0.00 0.00 80 1012.6
20260505111155 58 321 0.0 0.0 0.00 0.00 0.00 80 1012.6
20260505111052 58 321 0.0 0.0 0.00 0.00 0.00 80 1012.6
20260505110952 58 320 0.0 0.0 0.00 0.00 0.00 80 1012.6
20260505110830 58 319 0.0 0.0 0.00 0.00 0.00 80 1012.6
20260505110751 58 319 0.0 0.0 0.00 0.00 0.00 80 1012.6
20260505110629 58 319 0.0 0.0 0.00 0.00 0.00 79 1012.6
20260505110537 58 319 0.0 0.0 0.00 0.00 0.00 79 1012.6
20260505110433 58 319 0.0 0.0 0.00 0.00 0.00 79 1012.6
20260505110335 58 319 0.0 0.0 0.00 0.00 0.00 79 1012.6
20260505110233 58 319 0.0 0.0 0.00 0.00 0.00 79 1012.6
20260505110154 58 319 0.0 0.0 0.00 0.00 0.00 80 1012.6
20260505102153 56 317 0.0 0.0 0.00 0.00 0.00 82 1012.2
20260505102034 56 316 0.0 0.0 0.00 0.00 0.00 82 1012.2
20260505101934 56 315 0.0 0.0 0.00 0.00 0.00 82 1012.2
20260505101832 56 312 0.0 0.0 0.00 0.00 0.00 82 1012.2
20260505101733 57 309 0.0 0.0 0.00 0.00 0.00 82 1012.2
20260505101634 57 306 0.0 0.0 0.00 0.00 0.00 81 1012.2
20260505101557 57 299 0.0 0.0 0.00 0.00 0.00 81 1012.2
20260505101437 57 191 0.0 0.0 0.00 0.00 0.00 81 1012.2
20260505101339 57 190 0.0 0.0 0.00 0.00 0.00 80 1012.1
20260505101301 57 190 0.0 0.0 0.00 0.00 0.00 80 1012.1
20260505101202 57 190 0.0 0.0 0.00 0.00 0.00 79 1012.1
20260505101039 58 189 0.0 0.0 0.00 0.00 0.00 79 1012.1
20260505100939 58 189 0.0 0.0 0.00 0.00 0.00 79 1012.1
20260505100841 58 189 0.0 0.0 0.00 0.00 0.00 78 1012.1
20260505100726 58 189 0.0 0.0 0.00 0.00 0.00 77 1012.1
20260505100652 58 189 0.0 0.0 0.00 0.00 0.00 77 1012.1
20260505100605 59 189 0.0 0.0 0.00 0.00 0.00 77 1012.1
20260505100425 59 189 0.0 0.0 0.00 0.00 0.00 77 1012.1
20260505100326 59 189 0.0 0.0 0.00 0.00 0.00 77 1012.1
20260505100228 59 189 0.0 0.0 0.00 0.00 0.00 77 1012.1
20260505100130 59 189 0.0 0.0 0.00 0.00 0.00 77 1012.1
20260505100032 59 189 0.0 0.0 0.00 0.00 0.00 77 1012.1
20260505095934 59 189 0.0 0.0 0.00 0.00 0.00 77 1012.1
20260505095832 59 189 0.0 0.0 0.00 0.00 0.00 77 1011.6
20260505095754 59 189 0.0 0.0 0.00 0.00 0.00 77 1011.6
20260505095655 59 189 0.0 0.0 0.00 0.00 0.00 77 1011.6
20260505095555 59 189 0.0 0.0 0.00 0.00 0.00 77 1011.6
20260505095430 59 172 0.0 0.0 0.00 0.00 0.00 77 1011.6
20260505095331 59 172 0.0 0.0 0.00 0.00 0.00 77 1011.6
20260505095233 59 172 0.0 0.0 0.00 0.00 0.00 77 1011.6
20260505095134 59 171 0.0 0.0 0.00 0.00 0.00 77 1011.6
20260505095036 59 171 0.0 0.0 0.00 0.00 0.00 77 1011.6
20260505094936 59 171 0.0 0.0 0.00 0.00 0.00 77 1011.6
20260505094834 59 166 0.9 0.0 0.00 0.00 0.00 77 1011.6
20260505094735 59 165 0.9 0.0 0.00 0.00 0.00 77 1011.6
20260505094637 59 164 0.9 0.0 0.00 0.00 0.00 77 1011.6
20260505094539 59 163 0.9 0.0 0.00 0.00 0.00 77 1011.6
20260505094439 59 162 0.9 0.0 0.00 0.00 0.00 77 1011.6
20260505094341 59 163 0.9 0.0 0.00 0.00 0.00 78 1011.6
20260505094239 59 161 0.9 0.0 0.00 0.00 0.00 77 1011.6
20260505094124 58 161 0.9 0.0 0.00 0.00 0.00 78 1011.6
20260505094046 58 160 0.9 0.0 0.00 0.00 0.00 78 1011.6
20260505093928 58 159 0.0 0.0 0.00 0.00 0.00 78 1011.6
20260505093828 58 159 0.0 0.0 0.00 0.00 0.00 78 1011.6
20260505093750 58 163 0.0 0.0 0.00 0.00 0.00 78 1011.6
20260505093627 58 162 0.0 0.0 0.00 0.00 0.00 78 1011.6
20260505093529 58 161 0.0 0.0 0.00 0.00 0.00 78 1011.6
20260505093430 58 161 0.0 0.0 0.00 0.00 0.00 78 1011.6
20260505093332 58 161 0.0 0.0 0.00 0.00 0.00 78 1011.6
20260505093234 58 161 0.0 0.0 0.00 0.00 0.00 78 1011.6
20260505093136 58 160 0.0 0.0 0.00 0.00 0.00 78 1011.6
20260505093035 58 161 0.0 0.0 0.00 0.00 0.00 78 1011.6
20260505092934 58 161 0.0 0.0 0.00 0.00 0.00 78 1011.6
20260505092834 58 161 0.0 0.0 0.00 0.00 0.00 78 1011.6
20260505092735 58 161 0.0 0.0 0.00 0.00 0.00 78 1011.6
20260505092657 58 161 0.0 0.0 0.00 0.00 0.00 77 1011.6
20260505092602 58 161 0.0 0.0 0.00 0.00 0.00 77 1011.6
20260505092437 58 161 0.0 0.0 0.00 0.00 0.00 77 1011.6
20260505092339 58 161 0.0 0.0 0.00 0.00 0.00 77 1011.6
20260505092238 58 161 0.0 0.0 0.00 0.00 0.00 77 1011.6
20260505092142 59 161 0.0 0.0 0.00 0.00 0.00 77 1011.6
20260505092042 59 161 0.0 0.0 0.00 0.00 0.00 77 1011.6
20260505091943 59 161 0.0 0.0 0.00 0.00 0.00 77 1011.6
20260505091824 59 161 0.0 0.0 0.00 0.00 0.00 77 1011.6
20260505091745 59 161 0.0 0.0 0.00 0.00 0.00 77 1011.6
20260505091624 59 163 0.0 0.0 0.00 0.00 0.00 77 1011.6
20260505091546 59 163 0.0 0.0 0.00 0.00 0.00 77 1011.6
20260505091423 59 163 0.0 0.0 0.00 0.00 0.00 77 1011.6
20260505091328 59 163 0.0 0.0 0.00 0.00 0.00 77 1011.6
20260505091234 59 163 0.0 0.0 0.00 0.00 0.00 77 1011.6
20260505091157 59 163 0.0 0.0 0.00 0.00 0.00 77 1011.6
20260505091054 59 163 0.0 0.0 0.00 0.00 0.00 77 1011.6
20260505090933 59 163 0.0 0.0 0.00 0.00 0.00 77 1011.6
20260505090852 59 165 0.0 0.0 0.00 0.00 0.00 77 1011.6
20260505090756 59 165 0.0 0.0 0.00 0.00 0.00 77 1011.6
20260505090632 59 165 0.0 0.0 0.00 0.00 0.00 77 1011.6
20260505090537 59 165 0.0 0.0 0.00 0.00 0.00 77 1011.6
20260505090458 59 165 0.0 0.0 0.00 0.00 0.00 77 1011.6
20260505090343 59 165 0.0 0.0 0.00 0.00 0.00 77 1011.6
20260505090224 59 165 0.0 0.0 0.00 0.00 0.00 77 1011.6
20260505090146 59 164 0.0 0.0 0.00 0.00 0.00 77 1011.6
20260505090045 59 163 0.0 0.0 0.00 0.00 0.00 77 1011.6
20260505085925 59 163 0.0 0.0 0.00 0.00 0.00 77 1011.6
20260505085827 59 163 0.0 0.0 0.00 0.00 0.00 77 1011.5
20260505085732 59 164 0.0 0.0 0.00 0.00 0.00 77 1011.5
20260505085631 59 164 0.0 0.0 0.00 0.00 0.00 77 1011.5
20260505085533 59 164 0.0 0.0 0.00 0.00 0.00 77 1011.5
20260505085429 59 164 0.0 0.0 0.00 0.00 0.00 77 1011.5
20260505085332 59 162 0.0 0.0 0.00 0.00 0.00 77 1011.5
20260505085230 59 162 0.0 0.0 0.00 0.00 0.00 77 1011.5
20260505085136 59 162 0.0 0.0 0.00 0.00 0.00 77 1011.5
20260505085058 59 162 0.0 0.0 0.00 0.00 0.00 77 1011.5
20260505084940 59 161 0.0 0.0 0.00 0.00 0.00 77 1011.5
20260505084839 59 161 0.0 0.0 0.00 0.00 0.00 77 1011.5
20260505084740 59 161 0.0 0.0 0.00 0.00 0.00 77 1011.5
20260505084621 59 160 0.0 0.0 0.00 0.00 0.00 77 1011.5
20260505084545 59 159 0.0 0.0 0.00 0.00 0.00 77 1011.5
20260505084427 59 159 0.0 0.0 0.00 0.00 0.00 77 1011.5
20260505084330 58 157 0.0 0.0 0.00 0.00 0.00 77 1011.6
20260505084227 58 155 0.0 0.0 0.00 0.00 0.00 77 1011.6
20260505084149 58 155 0.0 0.0 0.00 0.00 0.00 77 1011.6
20260505084028 58 155 0.0 0.0 0.00 0.00 0.00 77 1011.6
20260505083928 58 155 0.0 0.0 0.00 0.00 0.00 77 1011.6
20260505083827 58 154 0.0 0.0 0.00 0.00 0.00 77 1011.6
20260505083732 58 154 0.0 0.0 0.00 0.00 0.00 77 1011.6
20260505083630 58 171 0.0 0.0 0.00 0.00 0.00 77 1011.6
20260505083536 58 170 0.0 0.0 0.00 0.00 0.00 77 1011.6
20260505083458 58 170 0.0 0.0 0.00 0.00 0.00 77 1011.6
20260505083338 58 170 0.0 0.0 0.00 0.00 0.00 77 1011.6
20260505083240 58 170 0.0 0.0 0.00 0.00 0.00 77 1011.6
20260505083202 58 170 0.0 0.0 0.00 0.00 0.00 77 1011.6
20260505083043 58 170 0.0 0.0 0.00 0.00 0.00 77 1011.6
20260505082924 58 179 0.0 0.0 0.00 0.00 0.00 77 1011.6
20260505082825 58 178 0.0 0.0 0.00 0.00 0.00 77 1011.6
20260505082727 58 184 0.0 0.0 0.00 0.00 0.00 77 1011.6
20260505082628 58 184 0.0 0.0 0.00 0.00 0.00 77 1011.6
20260505082534 58 190 0.0 0.0 0.00 0.00 0.00 77 1011.6
20260505082450 58 181 0.0 0.0 0.00 0.00 0.00 77 1011.6
20260505082334 58 179 0.0 0.0 0.00 0.00 0.00 77 1011.6
20260505082254 58 172 0.0 0.0 0.00 0.00 0.00 77 1011.6
20260505082136 58 170 0.0 0.0 0.00 0.00 0.00 77 1011.6
20260505082042 58 170 0.0 0.0 0.00 0.00 0.00 77 1011.6
20260505082003 58 162 0.0 0.0 0.00 0.00 0.00 77 1011.6
20260505081840 58 161 0.0 0.0 0.00 0.00 0.00 77 1011.6
20260505081741 58 161 0.0 0.0 0.00 0.00 0.00 77 1011.6
20260505081643 58 156 0.0 0.0 0.00 0.00 0.00 77 1011.6
20260505081525 58 165 0.0 0.0 0.00 0.00 0.00 77 1011.6
20260505081426 58 160 0.0 0.0 0.00 0.00 0.00 77 1011.6
20260505081327 58 170 0.0 0.0 0.00 0.00 0.00 77 1011.6
20260505081225 58 168 0.0 0.0 0.00 0.00 0.00 77 1011.6
20260505081147 58 168 0.0 0.0 0.00 0.00 0.00 77 1011.6
20260505081044 58 168 0.0 0.0 0.00 0.00 0.00 77 1011.6
20260505080929 58 167 0.0 0.0 0.00 0.00 0.00 77 1011.6
20260505080831 58 171 0.0 0.0 0.00 0.00 0.00 77 1011.6
20260505080733 58 176 0.0 0.0 0.00 0.00 0.00 77 1011.6
20260505080634 58 176 0.0 0.0 0.00 0.00 0.00 77 1011.6
20260505080537 58 176 0.0 0.0 0.00 0.00 0.00 77 1011.6
20260505080434 58 163 0.0 0.0 0.00 0.00 0.00 77 1011.6
20260505080339 58 171 0.0 0.0 0.00 0.00 0.00 77 1011.6
20260505080237 58 172 0.0 0.0 0.00 0.00 0.00 77 1011.6
20260505080141 58 172 0.0 0.0 0.00 0.00 0.00 77 1011.6
20260505080104 58 173 0.0 0.0 0.00 0.00 0.00 77 1011.6
20260505080003 58 173 0.0 0.0 0.00 0.00 0.00 77 1011.6
20260505075840 58 173 0.0 0.0 0.00 0.00 0.00 77 1011.4
20260505075742 58 173 0.0 0.0 0.00 0.00 0.00 77 1011.4
20260505075624 58 173 0.0 0.0 0.00 0.00 0.00 77 1011.4
20260505075545 58 173 0.0 0.0 0.00 0.00 0.00 77 1011.4
20260505075443 58 173 0.0 0.0 0.00 0.00 0.00 77 1011.4
20260505075344 58 173 0.0 0.0 0.00 0.00 0.00 77 1011.4
20260505075221 58 173 0.0 0.0 0.00 0.00 0.00 77 1011.4
20260505075147 58 173 0.0 0.0 0.00 0.00 0.00 77 1011.4
20260505075026 58 173 0.0 0.0 0.00 0.00 0.00 77 1011.4
20260505074953 58 173 0.0 0.0 0.00 0.00 0.00 76 1011.4
20260505074854 58 173 0.0 0.0 0.00 0.00 0.00 76 1011.4
20260505074758 58 173 0.0 0.0 0.00 0.00 0.00 76 1011.4
20260505074655 58 173 0.0 0.0 0.00 0.00 0.00 76 1011.4
20260505074536 58 173 0.0 0.0 0.00 0.00 0.00 76 1011.4
20260505074432 58 173 0.0 0.0 0.00 0.00 0.00 76 1011.4
20260505074335 58 173 0.0 0.0 0.00 0.00 0.00 76 1011.4
20260505074232 58 173 0.0 0.0 0.00 0.00 0.00 76 1011.4
20260505074138 58 173 0.0 0.0 0.00 0.00 0.00 76 1011.4
20260505074059 58 173 0.0 0.0 0.00 0.00 0.00 76 1011.4
20260505073939 58 173 0.0 0.0 0.00 0.00 0.00 76 1011.4
20260505073836 58 173 0.0 0.0 0.00 0.00 0.00 76 1011.4
20260505073738 58 173 0.0 0.0 0.00 0.00 0.00 76 1011.4
20260505073636 58 173 0.0 0.0 0.00 0.00 0.00 76 1011.4
20260505073538 58 173 0.0 0.0 0.00 0.00 0.00 76 1011.4
20260505073438 58 173 0.0 0.0 0.00 0.00 0.00 76 1011.4
20260505073340 58 178 0.0 0.0 0.00 0.00 0.00 76 1011.4
20260505073239 58 178 0.0 0.0 0.00 0.00 0.00 76 1011.4
20260505073140 58 178 0.0 0.0 0.00 0.00 0.00 76 1011.4
20260505073039 58 178 0.0 0.0 0.00 0.00 0.00 76 1011.4
20260505072940 58 178 0.0 0.0 0.00 0.00 0.00 76 1011.4
20260505072838 58 177 0.0 0.0 0.00 0.00 0.00 75 1011.2
20260505072724 58 177 0.0 0.0 0.00 0.00 0.00 75 1011.2
20260505072645 58 177 0.0 0.0 0.00 0.00 0.00 75 1011.2
20260505072606 58 177 0.0 0.0 0.00 0.00 0.00 76 1011.2
20260505072443 58 177 0.0 0.0 0.00 0.00 0.00 75 1011.2
20260505072345 58 177 0.0 0.0 0.00 0.00 0.00 75 1011.2
20260505072243 58 177 0.0 0.0 0.00 0.00 0.00 75 1011.2
20260505072129 58 177 0.0 0.0 0.00 0.00 0.00 75 1011.2
20260505072027 58 177 0.0 0.0 0.00 0.00 0.00 75 1011.2
20260505071927 58 177 0.0 0.0 0.00 0.00 0.00 75 1011.2
20260505071827 58 177 0.0 0.0 0.00 0.00 0.00 75 1011.2
20260505071729 59 177 0.0 0.0 0.00 0.00 0.00 75 1011.2
20260505071628 59 177 0.0 0.0 0.00 0.00 0.00 75 1011.2
20260505071530 59 177 0.0 0.0 0.00 0.00 0.00 75 1011.2
20260505071431 59 177 0.0 0.0 0.00 0.00 0.00 75 1011.2
20260505071332 59 177 0.0 0.0 0.00 0.00 0.00 75 1011.1
20260505071235 59 177 0.0 0.0 0.00 0.00 0.00 75 1011.1
20260505071158 59 177 0.0 0.0 0.00 0.00 0.00 75 1011.1
20260505071055 59 177 0.0 0.0 0.00 0.00 0.00 75 1011.1
20260505070934 59 177 0.0 0.0 0.00 0.00 0.00 74 1011.1
20260505070833 59 177 0.0 0.0 0.00 0.00 0.00 74 1011.1
20260505070740 59 177 0.0 0.0 0.00 0.00 0.00 74 1011.1
20260505070641 59 177 0.0 0.0 0.00 0.00 0.00 74 1011.1
20260505070605 59 177 0.0 0.0 0.00 0.00 0.00 74 1011.1
20260505070441 59 177 0.0 0.0 0.00 0.00 0.00 74 1011.1
20260505070341 59 177 0.0 0.0 0.00 0.00 0.00 74 1011.1
20260505070303 59 177 0.0 0.0 0.00 0.00 0.00 74 1011.1
20260505070144 59 177 0.0 0.0 0.00 0.00 0.00 74 1011.1
20260505070026 59 172 0.0 0.0 0.00 0.00 0.00 74 1011.1
20260505065927 59 172 0.0 0.0 0.00 0.00 0.00 74 1011.1
20260505065849 59 172 0.0 0.0 0.00 0.00 0.00 74 1011.1
20260505065729 59 173 0.0 0.0 0.00 0.00 0.00 74 1011.1
20260505065626 59 172 0.0 0.0 0.00 0.00 0.00 74 1011.1
20260505065528 59 172 0.0 0.0 0.00 0.00 0.00 74 1011.1
20260505065425 59 173 0.0 0.0 0.00 0.00 0.00 74 1011.1
20260505065331 59 162 0.0 0.0 0.00 0.00 0.00 74 1011.1
20260505065229 59 162 0.0 0.0 0.00 0.00 0.00 74 1011.1
20260505065131 59 162 0.0 0.0 0.00 0.00 0.00 74 1011.1
20260505065030 59 161 0.0 0.0 0.00 0.00 0.00 74 1011.1
20260505064930 59 161 0.0 0.0 0.00 0.00 0.00 74 1011.1
20260505064848 59 161 0.0 0.0 0.00 0.00 0.00 74 1011.1
20260505064749 59 161 0.0 0.0 0.00 0.00 0.00 74 1011.1
20260505064626 59 161 0.0 0.0 0.00 0.00 0.00 73 1011.1
20260505064532 59 161 0.0 0.0 0.00 0.00 0.00 73 1011.1
20260505064428 59 161 0.0 0.0 0.00 0.00 0.00 73 1011.1
20260505064350 59 161 0.0 0.0 0.00 0.00 0.00 73 1011.1
20260505064229 59 161 0.0 0.0 0.00 0.00 0.00 73 1011.1
20260505064131 59 161 0.0 0.0 0.00 0.00 0.00 73 1011.1
20260505064053 59 161 0.0 0.0 0.00 0.00 0.00 73 1011.1
20260505063953 59 161 0.0 0.0 0.00 0.00 0.00 73 1011.1
20260505063830 59 161 0.0 0.0 0.00 0.00 0.00 73 1011.1
20260505063737 59 161 0.0 0.0 0.00 0.00 0.00 73 1011.1
20260505063635 59 161 0.0 0.0 0.00 0.00 0.00 73 1011.1
20260505063536 59 161 0.0 0.0 0.00 0.00 0.00 73 1011.1
20260505063457 59 161 0.0 0.0 0.00 0.00 0.00 73 1011.1
20260505063338 59 161 0.0 0.0 0.00 0.00 0.00 73 1011.1
20260505063237 59 161 0.0 0.0 0.00 0.00 0.00 73 1011.1
20260505063138 59 161 0.0 0.0 0.00 0.00 0.00 72 1011.1
20260505063043 59 161 0.0 0.0 0.00 0.00 0.00 72 1011.1
20260505063001 59 161 0.0 0.0 0.00 0.00 0.00 72 1011.1
20260505062902 59 161 0.0 0.0 0.00 0.00 0.00 73 1011.0
20260505062743 59 161 0.0 0.0 0.00 0.00 0.00 73 1011.0
20260505062641 59 157 0.0 0.0 0.00 0.00 0.00 72 1011.0
20260505062543 60 157 0.0 0.0 0.00 0.00 0.00 72 1011.0
20260505062441 60 157 0.0 0.0 0.00 0.00 0.00 73 1011.0
20260505062327 60 157 0.0 0.0 0.00 0.00 0.00 72 1011.0
20260505062228 60 157 0.0 0.0 0.00 0.00 0.00 72 1011.0
20260505062129 60 157 0.0 0.0 0.00 0.00 0.00 72 1011.0
20260505062028 60 157 0.0 0.0 0.00 0.00 0.00 72 1011.0
20260505061928 60 157 0.0 0.0 0.00 0.00 0.00 72 1011.0
20260505061826 60 157 0.9 0.0 0.00 0.00 0.00 72 1011.0
20260505061728 60 157 0.9 0.0 0.00 0.00 0.00 72 1011.0
20260505061629 60 157 0.9 0.0 0.00 0.00 0.00 72 1011.0
20260505061532 60 155 0.0 0.0 0.00 0.00 0.00 72 1011.0
20260505061430 60 168 0.0 0.0 0.00 0.00 0.00 72 1011.0
20260505061331 60 168 0.0 0.0 0.00 0.00 0.00 71 1011.1
20260505061230 60 168 0.0 0.0 0.00 0.00 0.00 71 1011.1
20260505061131 60 168 0.0 0.0 0.00 0.00 0.00 71 1011.1
20260505061035 60 169 0.0 0.0 0.00 0.00 0.00 71 1011.1
20260505060934 60 164 0.0 0.0 0.00 0.00 0.00 71 1011.1
20260505060837 60 163 0.0 0.0 0.00 0.00 0.00 71 1011.1
20260505060742 60 163 0.0 0.0 0.00 0.00 0.00 71 1011.1
20260505060624 60 163 0.0 0.0 0.00 0.00 0.00 71 1011.1
20260505060547 60 163 0.0 0.0 0.00 0.00 0.00 71 1011.1
20260505060428 60 163 0.0 0.0 0.00 0.00 0.00 71 1011.1
20260505060330 60 163 0.0 0.0 0.00 0.00 0.00 71 1011.1
20260505060229 60 163 0.0 0.0 0.00 0.00 0.00 71 1011.1
20260505060153 60 163 0.0 0.0 0.00 0.00 0.00 71 1011.1
20260505060031 60 163 0.0 0.0 0.00 0.00 0.00 71 1011.1
20260505055932 60 163 0.0 0.0 0.00 0.00 0.00 71 1011.1
20260505055830 60 163 0.0 0.0 0.00 0.00 0.00 71 1011.2
20260505055739 60 163 0.0 0.0 0.00 0.00 0.00 71 1011.2
20260505055636 60 159 0.0 0.0 0.00 0.00 0.00 71 1011.2
20260505055541 60 150 0.0 0.0 0.00 0.00 0.00 70 1011.2
20260505055441 60 150 0.0 0.0 0.00 0.00 0.00 70 1011.2
20260505055341 60 150 0.0 0.0 0.00 0.00 0.00 70 1011.2
20260505055304 60 150 0.0 0.0 0.00 0.00 0.00 70 1011.2
20260505055125 60 150 0.0 0.0 0.00 0.00 0.00 70 1011.2
20260505055031 60 150 0.0 0.0 0.00 0.00 0.00 70 1011.2
20260505054931 60 150 0.0 0.0 0.00 0.00 0.00 70 1011.2
20260505054830 60 150 0.0 0.0 0.00 0.00 0.00 70 1011.2
20260505054732 60 155 0.0 0.0 0.00 0.00 0.00 70 1011.2
20260505054629 60 160 0.0 0.0 0.00 0.00 0.00 70 1011.2
20260505054532 60 160 0.0 0.0 0.00 0.00 0.00 70 1011.2
20260505054428 60 160 0.0 0.0 0.00 0.00 0.00 70 1011.2
20260505054335 60 160 0.0 0.0 0.00 0.00 0.00 70 1011.3
20260505054256 60 160 0.0 0.0 0.00 0.00 0.00 70 1011.3
20260505054157 60 160 0.0 0.0 0.00 0.00 0.00 70 1011.3
20260505054034 60 160 0.0 0.0 0.00 0.00 0.00 70 1011.3
20260505053955 60 159 0.0 0.0 0.00 0.00 0.00 69 1011.3
20260505053831 60 160 0.0 0.0 0.00 0.00 0.00 69 1011.3
20260505053732 60 159 0.0 0.0 0.00 0.00 0.00 69 1011.3
20260505053658 60 159 0.0 0.0 0.00 0.00 0.00 69 1011.3
20260505053600 60 159 0.0 0.0 0.00 0.00 0.00 69 1011.3
20260505053439 60 159 0.0 0.0 0.00 0.00 0.00 69 1011.3
20260505053340 60 157 0.0 0.0 0.00 0.00 0.00 69 1011.3
20260505053242 60 157 0.0 0.0 0.00 0.00 0.00 69 1011.3
20260505053143 60 157 0.0 0.0 0.00 0.00 0.00 69 1011.3
20260505053042 60 157 0.0 0.0 0.00 0.00 0.00 69 1011.3
20260505052942 61 157 0.0 0.0 0.00 0.00 0.00 69 1011.3
20260505052827 60 157 0.0 0.0 0.00 0.00 0.00 69 1011.3
20260505052730 60 157 0.0 0.0 0.00 0.00 0.00 69 1011.3
20260505052629 61 157 0.0 0.0 0.00 0.00 0.00 69 1011.3
20260505052534 61 157 0.0 0.0 0.00 0.00 0.00 69 1011.3
20260505052430 60 157 0.0 0.0 0.00 0.00 0.00 69 1011.3
20260505052331 60 157 0.0 0.0 0.00 0.00 0.00 69 1011.3
20260505052250 61 157 0.0 0.0 0.00 0.00 0.00 69 1011.3
20260505052134 61 157 0.0 0.0 0.00 0.00 0.00 69 1011.3
20260505052036 61 157 0.0 0.0 0.00 0.00 0.00 69 1011.3
20260505051938 61 157 0.0 0.0 0.00 0.00 0.00 69 1011.3
20260505051835 61 157 0.0 0.0 0.00 0.00 0.00 69 1011.3
20260505051736 61 157 0.0 0.0 0.00 0.00 0.00 69 1011.3
20260505051635 61 157 0.0 0.0 0.00 0.00 0.00 69 1011.3
20260505051545 61 157 0.0 0.0 0.00 0.00 0.00 69 1011.3
20260505051442 61 157 0.0 0.0 0.00 0.00 0.00 69 1011.3
20260505051343 61 157 0.0 0.0 0.00 0.00 0.00 69 1011.5
20260505051222 61 157 0.0 0.0 0.00 0.00 0.00 68 1011.5
20260505051127 61 158 0.0 0.0 0.00 0.00 0.00 69 1011.5
20260505051029 61 158 0.0 0.0 0.00 0.00 0.00 68 1011.5
20260505050933 61 158 0.0 0.0 0.00 0.00 0.00 69 1011.5
20260505050833 61 163 0.0 0.0 0.00 0.00 0.00 69 1011.5
20260505050755 61 163 0.0 0.0 0.00 0.00 0.00 69 1011.5
20260505050652 61 150 0.0 0.0 0.00 0.00 0.00 68 1011.5
20260505050536 61 150 0.0 0.0 0.00 0.00 0.00 68 1011.5
20260505050432 61 150 0.0 0.0 0.00 0.00 0.00 68 1011.5
20260505050353 61 150 0.0 0.0 0.00 0.00 0.00 68 1011.5
20260505050233 61 150 0.0 0.0 0.00 0.00 0.00 68 1011.5
20260505050138 61 150 0.0 0.0 0.00 0.00 0.00 68 1011.5
20260505041727 60 162 0.0 0.0 0.00 0.00 0.00 68 1011.6
20260505041626 60 140 0.0 0.0 0.00 0.00 0.00 68 1011.6
20260505041528 60 140 0.0 0.0 0.00 0.00 0.00 68 1011.6
20260505041425 60 140 0.0 0.0 0.00 0.00 0.00 68 1011.6
20260505041346 60 139 0.0 0.0 0.00 0.00 0.00 68 1011.6
20260505041224 60 138 0.0 0.0 0.00 0.00 0.00 67 1011.6
20260505041146 60 138 0.0 0.0 0.00 0.00 0.00 67 1011.6
20260505041028 60 138 0.0 0.0 0.00 0.00 0.00 67 1011.6
20260505040928 60 138 0.0 0.0 0.00 0.00 0.00 67 1011.6
20260505040826 60 138 0.0 0.0 0.00 0.00 0.00 67 1011.6
20260505040749 61 151 0.0 0.0 0.00 0.00 0.00 67 1011.6
20260505040602 61 151 0.0 0.0 0.00 0.00 0.00 67 1011.6
20260505040421 61 153 0.0 0.0 0.00 0.00 0.00 67 1011.6
20260505040351 61 153 0.0 0.0 0.00 0.00 0.00 67 1011.6
20260505040228 61 152 0.0 0.0 0.00 0.00 0.00 67 1011.6
20260505040129 61 152 0.0 0.0 0.00 0.00 0.00 66 1011.6
20260505040027 61 152 0.0 0.0 0.00 0.00 0.00 66 1011.6
20260505035928 61 152 0.0 0.0 0.00 0.00 0.00 66 1011.6
20260505035846 61 152 0.0 0.0 0.00 0.00 0.00 66 1011.5
20260505035727 61 152 0.0 0.0 0.00 0.00 0.00 66 1011.5
20260505035630 61 153 0.0 0.0 0.00 0.00 0.00 66 1011.5
20260505035532 61 153 0.0 0.0 0.00 0.00 0.00 66 1011.5
20260505035429 61 149 0.0 0.0 0.00 0.00 0.00 66 1011.5
20260505035330 61 149 0.0 0.0 0.00 0.00 0.00 66 1011.5
20260505035251 61 149 0.0 0.0 0.00 0.00 0.00 66 1011.5
20260505035131 61 149 0.0 0.0 0.00 0.00 0.00 66 1011.5
20260505035034 61 149 0.0 0.0 0.00 0.00 0.00 66 1011.5
20260505034959 61 149 0.0 0.0 0.00 0.00 0.00 66 1011.5
20260505034840 61 149 0.0 0.0 0.00 0.00 0.00 66 1011.5
20260505034743 61 149 0.0 0.0 0.00 0.00 0.00 66 1011.5
20260505034624 61 149 0.0 0.0 0.00 0.00 0.00 66 1011.5
20260505034546 61 149 0.0 0.0 0.00 0.00 0.00 66 1011.5
20260505034423 61 149 0.0 0.0 0.00 0.00 0.00 66 1011.5
20260505034349 61 149 0.0 0.0 0.00 0.00 0.00 65 1011.6
20260505034246 61 149 0.0 0.0 0.00 0.00 0.00 65 1011.6
20260505034135 61 149 0.0 0.0 0.00 0.00 0.00 65 1011.6
20260505034037 61 149 0.0 0.0 0.00 0.00 0.00 65 1011.6
20260505033937 61 149 0.0 0.0 0.00 0.00 0.00 65 1011.6
20260505033859 61 149 0.0 0.0 0.00 0.00 0.00 65 1011.6
20260505033739 61 149 0.0 0.0 0.00 0.00 0.00 65 1011.6
20260505033701 61 149 0.0 0.0 0.00 0.00 0.00 65 1011.6
20260505033542 61 149 0.0 0.0 0.00 0.00 0.00 65 1011.6
20260505033426 61 136 0.0 0.0 0.00 0.00 0.00 65 1011.6
20260505033326 61 136 0.0 0.0 0.00 0.00 0.00 65 1011.6
20260505033229 61 142 0.0 0.0 0.00 0.00 0.00 64 1011.6
20260505033153 61 142 0.0 0.0 0.00 0.00 0.00 64 1011.6
20260505033051 61 142 0.0 0.0 0.00 0.00 0.00 64 1011.6
20260505032929 61 142 0.0 0.0 0.00 0.00 0.00 64 1011.6
20260505032831 61 143 0.0 0.0 0.00 0.00 0.00 64 1011.6
20260505032738 61 143 0.0 0.0 0.00 0.00 0.00 64 1011.6
20260505032635 61 143 0.0 0.0 0.00 0.00 0.00 64 1011.6
20260505032537 61 147 0.0 0.0 0.00 0.00 0.00 64 1011.6
20260505032436 61 147 0.0 0.0 0.00 0.00 0.00 64 1011.6
20260505032337 61 147 0.0 0.0 0.00 0.00 0.00 64 1011.6
20260505032254 61 146 0.0 0.0 0.00 0.00 0.00 64 1011.6
20260505032135 61 144 0.0 0.0 0.00 0.00 0.00 64 1011.6
20260505032034 61 144 0.0 0.0 0.00 0.00 0.00 64 1011.6
20260505031938 61 144 0.0 0.0 0.00 0.00 0.00 64 1011.6
20260505031842 61 143 0.0 0.0 0.00 0.00 0.00 63 1011.6
20260505031724 61 143 0.0 0.0 0.00 0.00 0.00 63 1011.6
20260505031645 61 143 0.0 0.0 0.00 0.00 0.00 63 1011.6
20260505031546 61 143 0.0 0.0 0.00 0.00 0.00 63 1011.6
20260505031426 61 143 0.0 0.0 0.00 0.00 0.00 63 1011.6
20260505031330 61 143 0.0 0.0 0.00 0.00 0.00 63 1011.6
20260505031251 61 143 0.0 0.0 0.00 0.00 0.00 63 1011.6
20260505031131 61 143 0.0 0.0 0.00 0.00 0.00 63 1011.6
20260505031029 61 143 0.0 0.0 0.00 0.00 0.00 62 1011.6
20260505030929 62 143 0.0 0.0 0.00 0.00 0.00 62 1011.6
20260505030827 62 143 0.0 0.0 0.00 0.00 0.00 62 1011.6
20260505030729 62 142 0.0 0.0 0.00 0.00 0.00 62 1011.6
20260505030630 62 142 0.0 0.0 0.00 0.00 0.00 62 1011.6
20260505030557 62 139 0.0 0.0 0.00 0.00 0.00 62 1011.6
20260505030434 62 141 0.0 0.0 0.00 0.00 0.00 62 1011.6
20260505030334 62 140 0.0 0.0 0.00 0.00 0.00 62 1011.6
20260505030235 62 140 0.0 0.0 0.00 0.00 0.00 62 1011.6
20260505030136 62 140 0.0 0.0 0.00 0.00 0.00 62 1011.6
20260505030058 62 140 0.0 0.0 0.00 0.00 0.00 62 1011.6
20260505025937 62 140 0.0 0.0 0.00 0.00 0.00 62 1011.6
20260505025843 62 140 0.0 0.0 0.00 0.00 0.00 61 1011.7
20260505025724 62 140 0.0 0.0 0.00 0.00 0.00 61 1011.7
20260505025626 62 140 0.0 0.0 0.00 0.00 0.00 61 1011.7
20260505025531 62 138 0.0 0.0 0.00 0.00 0.00 61 1011.7
20260505025449 62 138 0.0 0.0 0.00 0.00 0.00 61 1011.7
20260505025329 62 138 0.0 0.0 0.00 0.00 0.00 60 1011.7
20260505025229 62 138 0.0 0.0 0.00 0.00 0.00 60 1011.7
20260505025133 62 137 0.0 0.0 0.00 0.00 0.00 60 1011.7
20260505025035 62 137 0.0 0.0 0.00 0.00 0.00 60 1011.7
20260505024934 62 143 0.0 0.0 0.00 0.00 0.00 60 1011.7
20260505024833 62 143 0.0 0.0 0.00 0.00 0.00 60 1011.7
20260505024737 62 145 0.0 0.0 0.00 0.00 0.00 60 1011.7
20260505024635 62 145 0.0 0.0 0.00 0.00 0.00 60 1011.7
20260505024541 62 142 0.0 0.0 0.00 0.00 0.00 60 1011.7
20260505024502 62 142 0.9 0.0 0.00 0.00 0.00 59 1011.7
20260505024343 63 136 0.0 0.0 0.00 0.00 0.00 59 1011.7
20260505024304 63 131 0.0 0.0 0.00 0.00 0.00 59 1011.7
20260505024145 63 150 0.9 0.0 0.00 0.00 0.00 59 1011.7
20260505024043 63 153 0.9 0.0 0.00 0.00 0.00 59 1011.7
20260505023944 63 152 0.9 0.0 0.00 0.00 0.00 59 1011.7
20260505023825 63 157 0.9 0.0 0.00 0.00 0.00 58 1011.7
20260505023730 63 163 0.9 0.0 0.00 0.00 0.00 58 1011.7
20260505023635 63 142 0.9 0.0 0.00 0.00 0.00 58 1011.7
20260505023557 63 150 0.9 0.0 0.00 0.00 0.00 58 1011.7
20260505023432 63 149 0.9 0.0 0.00 0.00 0.00 58 1011.7
20260505023334 63 126 0.9 0.0 0.00 0.00 0.00 58 1011.7
20260505023237 63 117 0.9 0.0 0.00 0.00 0.00 58 1011.7
20260505023158 63 143 0.9 0.0 0.00 0.00 0.00 58 1011.7
20260505023039 63 147 0.9 0.0 0.00 0.00 0.00 57 1011.7
20260505022940 63 149 0.9 0.0 0.00 0.00 0.00 57 1011.7
20260505022838 63 141 0.9 0.0 0.00 0.00 0.00 57 1011.8
20260505022740 63 141 0.9 0.0 0.00 0.00 0.00 57 1011.8
20260505022641 63 147 0.9 0.0 0.00 0.00 0.00 57 1011.8
20260505022603 63 149 0.9 0.0 0.00 0.00 0.00 56 1011.8
20260505022439 63 151 0.9 0.0 0.00 0.00 0.00 56 1011.8
20260505022324 63 129 0.9 0.0 0.00 0.00 0.00 56 1011.8
20260505022226 64 140 0.9 0.0 0.00 0.00 0.00 56 1011.8
20260505022126 64 140 0.9 0.0 0.00 0.00 0.00 56 1011.8
20260505022028 64 140 0.9 0.0 0.00 0.00 0.00 56 1011.8
20260505021931 64 140 0.9 0.0 0.00 0.00 0.00 56 1011.8
20260505021830 64 146 0.9 0.0 0.00 0.00 0.00 55 1011.8
20260505021735 64 146 0.9 0.0 0.00 0.00 0.00 55 1011.8
20260505021636 64 147 0.9 0.0 0.00 0.00 0.00 55 1011.8
20260505021541 64 160 0.9 0.0 0.00 0.00 0.00 55 1011.8
20260505021445 64 155 0.9 0.0 0.00 0.00 0.00 55 1011.8
20260505021407 64 172 0.9 0.0 0.00 0.00 0.00 55 1011.8
20260505021244 64 186 0.9 0.0 0.00 0.00 0.00 54 1011.8
20260505021145 64 157 0.9 0.0 0.00 0.00 0.00 54 1011.8
20260505021030 64 151 0.9 0.0 0.00 0.00 0.00 54 1011.8
20260505020930 64 139 0.9 0.0 0.00 0.00 0.00 54 1011.8
20260505020831 64 138 0.9 0.0 0.00 0.00 0.00 54 1011.8
20260505020734 64 149 0.9 0.0 0.00 0.00 0.00 54 1011.8
20260505020633 64 143 0.9 0.0 0.00 0.00 0.00 54 1011.8
20260505020535 64 142 0.9 0.0 0.00 0.00 0.00 54 1011.8
20260505020435 64 142 0.9 0.0 0.00 0.00 0.00 53 1011.8
20260505020337 64 157 0.9 0.0 0.00 0.00 0.00 53 1011.8
20260505020234 64 167 0.9 0.0 0.00 0.00 0.00 53 1011.8
20260505020139 64 110 1.7 0.0 0.00 0.00 0.00 53 1011.8
20260505020040 65 152 1.7 0.0 0.00 0.00 0.00 53 1011.8
20260505020001 65 159 1.7 0.0 0.00 0.00 0.00 53 1011.8
20260505015842 65 127 1.7 0.0 0.00 0.00 0.00 53 1011.6
20260505015803 65 148 1.7 0.0 0.00 0.00 0.00 52 1011.6
20260505015644 65 149 1.7 0.0 0.00 0.00 0.00 52 1011.6
20260505015544 65 148 1.7 0.0 0.00 0.00 0.00 52 1011.6
20260505015422 65 158 2.6 0.0 0.00 0.00 0.00 52 1011.6
20260505015348 65 158 2.6 0.0 0.00 0.00 0.00 52 1011.6
20260505015245 65 156 1.7 0.0 0.00 0.00 0.00 51 1011.6
20260505015128 65 149 1.7 0.0 0.00 0.00 0.00 51 1011.6
20260505015046 65 132 1.7 0.0 0.00 0.00 0.00 51 1011.6
20260505014930 65 149 1.7 0.0 0.00 0.00 0.00 51 1011.6
20260505014851 65 129 1.7 0.0 0.00 0.00 0.00 51 1011.6
20260505014733 65 113 1.7 0.0 0.00 0.00 0.00 51 1011.6
20260505014630 65 155 1.7 0.0 0.00 0.00 0.00 50 1011.6
20260505014535 65 143 1.7 0.0 0.00 0.00 0.00 50 1011.6
20260505014433 65 128 1.7 0.0 0.00 0.00 0.00 50 1011.6
20260505014335 65 145 1.7 0.0 0.00 0.00 0.00 50 1011.6
20260505014237 65 161 2.6 0.0 0.00 0.00 0.00 49 1011.6
20260505014140 65 130 2.6 0.0 0.00 0.00 0.00 49 1011.6
20260505014038 65 172 2.6 0.0 0.00 0.00 0.00 49 1011.6
20260505013937 66 176 2.6 0.0 0.00 0.00 0.00 49 1011.6
20260505013838 66 151 2.6 0.0 0.00 0.00 0.00 49 1011.6
20260505013740 66 141 2.6 0.0 0.00 0.00 0.00 48 1011.6
20260505013639 66 148 2.6 0.0 0.00 0.00 0.00 48 1011.6
20260505013543 66 147 2.6 0.0 0.00 0.00 0.00 48 1011.6
20260505013442 66 136 2.6 0.0 0.00 0.00 0.00 48 1011.6
20260505013346 66 161 2.6 0.0 0.00 0.00 0.00 47 1011.6
20260505013225 66 151 2.6 0.0 0.00 0.00 0.00 47 1011.6
20260505013146 66 175 2.6 0.0 0.00 0.00 0.00 47 1011.6
20260505013043 66 120 1.7 0.0 0.00 0.00 0.00 46 1011.6
20260505012929 66 151 1.7 0.0 0.00 0.00 0.00 46 1011.6
20260505012827 66 121 1.7 0.0 0.00 0.00 0.00 46 1011.2
20260505012729 66 161 1.7 0.0 0.00 0.00 0.00 45 1011.2
20260505012651 66 146 0.9 0.0 0.00 0.00 0.00 45 1011.2
20260505012531 66 160 0.9 0.0 0.00 0.00 0.00 45 1011.2
20260505012448 67 141 0.9 0.0 0.00 0.00 0.00 45 1011.2
20260505012330 67 143 0.0 0.0 0.00 0.00 0.00 44 1011.2
20260505012231 67 152 0.0 0.0 0.00 0.00 0.00 44 1011.2
20260505012136 67 172 0.0 0.0 0.00 0.00 0.00 44 1011.2
20260505012054 67 144 0.0 0.0 0.00 0.00 0.00 44 1011.2
20260505011933 67 145 0.0 0.0 0.00 0.00 0.00 44 1011.2
20260505011833 67 145 0.0 0.0 0.00 0.00 0.00 44 1011.2
20260505011734 67 145 0.0 0.0 0.00 0.00 0.00 44 1011.2
20260505011632 67 146 0.0 0.0 0.00 0.00 0.00 44 1011.2
20260505011555 67 146 0.0 0.0 0.00 0.00 0.00 43 1011.2
20260505011438 67 145 0.0 0.0 0.00 0.00 0.00 43 1011.2
20260505011341 67 145 0.0 0.0 0.00 0.00 0.00 43 1011.1
20260505011241 67 145 0.0 0.0 0.00 0.00 0.00 43 1011.1
20260505011203 67 145 0.0 0.0 0.00 0.00 0.00 43 1011.1
20260505011040 67 145 0.0 0.0 0.00 0.00 0.00 43 1011.1
20260505010940 67 145 0.0 0.0 0.00 0.00 0.00 43 1011.1
20260505010901 67 145 0.0 0.0 0.00 0.00 0.00 43 1011.1
20260505010742 67 145 0.0 0.0 0.00 0.00 0.00 43 1011.1
20260505010624 67 145 0.0 0.0 0.00 0.00 0.00 43 1011.1
20260505010525 67 145 0.9 0.0 0.00 0.00 0.00 43 1011.1
20260505010426 67 145 0.9 0.0 0.00 0.00 0.00 42 1011.1
20260505010348 68 146 0.9 0.0 0.00 0.00 0.00 42 1011.1
20260505010225 68 145 0.9 0.0 0.00 0.00 0.00 42 1011.1
20260505010127 68 146 0.9 0.0 0.00 0.00 0.00 42 1011.1
20260505010032 68 155 0.9 0.0 0.00 0.00 0.00 42 1011.1
20260505005933 68 154 0.9 0.0 0.00 0.00 0.00 42 1011.1
20260505005832 68 155 0.9 0.0 0.00 0.00 0.00 42 1011.0
20260505005734 68 155 0.9 0.0 0.00 0.00 0.00 42 1011.0
20260505005636 68 143 0.0 0.0 0.00 0.00 0.00 42 1011.0
20260505005538 68 144 0.0 0.0 0.00 0.00 0.00 42 1011.0
20260505005438 68 137 0.0 0.0 0.00 0.00 0.00 42 1011.0
20260505005343 68 153 0.0 0.0 0.00 0.00 0.00 42 1011.0
20260505005241 68 150 0.0 0.0 0.00 0.00 0.00 42 1011.0
20260505005142 68 150 0.0 0.0 0.00 0.00 0.00 41 1011.0
20260505005040 68 150 0.0 0.0 0.00 0.00 0.00 41 1011.0
20260505004944 68 150 0.0 0.0 0.00 0.00 0.00 41 1011.0
20260505004826 68 154 0.0 0.0 0.00 0.00 0.00 41 1011.0
20260505004731 68 154 0.0 0.0 0.00 0.00 0.00 41 1011.0
20260505004629 68 154 0.0 0.0 0.00 0.00 0.00 41 1011.0
20260505004551 68 155 0.0 0.0 0.00 0.00 0.00 41 1011.0
20260505004427 68 155 0.0 0.0 0.00 0.00 0.00 41 1011.0
20260505004329 68 155 0.0 0.0 0.00 0.00 0.00 41 1010.6
20260505004228 69 155 0.0 0.0 0.00 0.00 0.00 41 1010.6
20260505004131 69 155 0.0 0.0 0.00 0.00 0.00 41 1010.6
20260505004032 69 155 0.0 0.0 0.00 0.00 0.00 40 1010.6
20260505003932 69 155 0.0 0.0 0.00 0.00 0.00 40 1010.6
20260505003834 69 155 0.0 0.0 0.00 0.00 0.00 41 1010.6
20260505003759 69 155 0.0 0.0 0.00 0.00 0.00 40 1010.6
20260505003636 69 186 0.0 0.0 0.00 0.00 0.00 40 1010.6
20260505003541 69 186 0.0 0.0 0.00 0.00 0.00 40 1010.6
20260505003501 69 173 0.0 0.0 0.00 0.00 0.00 40 1010.6
20260505003326 69 173 0.0 0.0 0.00 0.00 0.00 40 1010.6
20260505003228 69 175 0.9 0.0 0.00 0.00 0.00 40 1010.6
20260505003129 69 176 0.9 0.0 0.00 0.00 0.00 40 1010.6
20260505003029 69 176 0.9 0.0 0.00 0.00 0.00 40 1010.6
20260505002930 69 153 0.9 0.0 0.00 0.00 0.00 40 1010.6
20260505002828 69 180 0.9 0.0 0.00 0.00 0.00 40 1010.6
20260505002749 69 178 0.9 0.0 0.00 0.00 0.00 40 1010.6
20260505002637 69 178 0.9 0.0 0.00 0.00 0.00 40 1010.6
20260505002537 69 160 0.9 0.0 0.00 0.00 0.00 40 1010.6
20260505002433 69 166 0.9 0.0 0.00 0.00 0.00 39 1010.6
20260505002336 69 167 0.9 0.0 0.00 0.00 0.00 39 1010.6
20260505002237 69 166 0.9 0.0 0.00 0.00 0.00 39 1010.6
20260505002159 69 172 0.9 0.0 0.00 0.00 0.00 39 1010.6
20260505002023 69 186 0.9 0.0 0.00 0.00 0.00 39 1010.6
20260505001927 69 190 0.9 0.0 0.00 0.00 0.00 39 1010.6
20260505001828 69 184 0.9 0.0 0.00 0.00 0.00 39 1010.6
20260505001733 70 190 0.9 0.0 0.00 0.00 0.00 39 1010.6
20260505001633 70 174 0.9 0.0 0.00 0.00 0.00 39 1010.6
20260505001536 70 157 0.9 0.0 0.00 0.00 0.00 39 1010.6
20260505001436 70 177 0.9 0.0 0.00 0.00 0.00 39 1010.6
20260505001342 70 170 0.9 0.0 0.00 0.00 0.00 39 1010.5
20260505001239 70 170 0.9 0.0 0.00 0.00 0.00 39 1010.5
20260505001140 70 170 1.7 0.0 0.00 0.00 0.00 38 1010.5
20260505001042 70 181 1.7 0.0 0.00 0.00 0.00 38 1010.5
20260505000943 70 148 1.7 0.0 0.00 0.00 0.00 39 1010.5
20260505000841 70 161 1.7 0.0 0.00 0.00 0.00 38 1010.5
20260505000747 70 161 1.7 0.0 0.00 0.00 0.00 38 1010.5
20260505000624 70 190 1.7 0.0 0.00 0.00 0.00 38 1010.5
20260505000526 70 190 1.7 0.0 0.00 0.00 0.00 38 1010.5
20260505000428 70 164 1.7 0.0 0.00 0.00 0.00 38 1010.5
20260505000327 70 151 1.7 0.0 0.00 0.00 0.00 38 1010.5
20260505000246 70 180 1.7 0.0 0.00 0.00 0.00 38 1010.5
20260505000127 70 182 0.9 0.0 0.00 0.00 0.00 38 1010.5
20260505000033 70 174 0.9 0.0 0.00 0.00 0.00 38 1010.5
20260504235934 70 174 1.7 0.0 0.00 0.00 0.00 38 1010.5
20260504235832 70 176 1.7 0.0 0.00 0.00 0.00 38 1010.2
20260504235733 70 182 2.6 0.0 0.00 0.00 0.00 38 1010.2
20260504235632 70 192 2.6 0.0 0.00 0.00 0.00 38 1010.2
20260504235535 70 224 2.6 0.0 0.00 0.00 0.00 38 1010.2
20260504235439 70 229 2.6 0.0 0.00 0.00 0.00 38 1010.2
20260504235339 70 175 2.6 0.0 0.00 0.00 0.00 38 1010.2
20260504235238 71 174 2.6 0.0 0.00 0.00 0.00 37 1010.2
20260504235139 71 174 2.6 0.0 0.00 0.00 0.00 37 1010.2
20260504235100 71 172 2.6 0.0 0.00 0.00 0.00 37 1010.2
20260504234934 71 200 2.6 0.0 0.00 0.00 0.00 37 1010.2
20260504234832 71 199 2.6 0.0 0.00 0.00 0.00 37 1010.2
20260504234738 71 192 1.7 0.0 0.00 0.00 0.00 37 1010.2
20260504234656 71 172 1.7 0.0 0.00 0.00 0.00 37 1010.2
20260504234537 71 176 1.7 0.0 0.00 0.00 0.00 37 1010.2
20260504234436 71 166 1.7 0.0 0.00 0.00 0.00 37 1010.2
20260504234359 71 168 1.7 0.0 0.00 0.00 0.00 37 1010.1
20260504234255 71 253 1.7 0.0 0.00 0.00 0.00 37 1010.1
20260504234137 71 158 0.9 0.0 0.00 0.00 0.00 37 1010.1
20260504234103 71 149 1.7 0.0 0.00 0.00 0.00 37 1010.1
20260504233926 71 141 1.7 0.0 0.00 0.00 0.00 37 1010.1
20260504233826 71 135 1.7 0.0 0.00 0.00 0.00 36 1010.1
20260504233727 71 197 1.7 0.0 0.00 0.00 0.00 36 1010.1
20260504233628 71 193 1.7 0.0 0.00 0.00 0.00 36 1010.1
20260504233530 71 160 1.7 0.0 0.00 0.00 0.00 36 1010.1
20260504233427 71 168 1.7 0.0 0.00 0.00 0.00 36 1010.1
20260504233328 71 180 1.7 0.0 0.00 0.00 0.00 36 1010.1
20260504233234 71 169 1.7 0.0 0.00 0.00 0.00 36 1010.1
20260504233135 71 180 1.7 0.0 0.00 0.00 0.00 36 1010.1
20260504233033 72 230 1.7 0.0 0.00 0.00 0.00 36 1010.1
20260504232934 71 203 1.7 0.0 0.00 0.00 0.00 36 1010.1
20260504232835 72 195 1.7 0.0 0.00 0.00 0.00 36 1010.1
20260504232736 72 180 1.7 0.0 0.00 0.00 0.00 36 1010.1
20260504232639 72 189 0.9 0.0 0.00 0.00 0.00 36 1010.1
20260504232540 72 206 0.9 0.0 0.00 0.00 0.00 36 1010.1
20260504232439 72 186 1.7 0.0 0.00 0.00 0.00 36 1010.1
20260504232358 72 186 1.7 0.0 0.00 0.00 0.00 36 1010.1
20260504232304 72 162 1.7 0.0 0.00 0.00 0.00 35 1010.1
20260504232143 72 152 1.7 0.0 0.00 0.00 0.00 35 1010.1
20260504232025 72 176 1.7 0.0 0.00 0.00 0.00 35 1010.1
20260504231930 72 160 2.6 0.0 0.00 0.00 0.00 35 1010.1
20260504231828 72 184 2.6 0.0 0.00 0.00 0.00 35 1010.1
20260504231754 72 184 2.6 0.0 0.00 0.00 0.00 35 1010.1
20260504231630 72 175 2.6 0.0 0.00 0.00 0.00 35 1010.1
20260504231553 72 229 2.6 0.0 0.00 0.00 0.00 35 1010.1
20260504231430 72 261 3.5 0.0 0.00 0.00 0.00 35 1010.1
20260504231330 72 191 3.5 0.0 0.00 0.00 0.00 35 1010.1
20260504231231 72 172 3.5 0.0 0.00 0.00 0.00 35 1010.1
20260504231137 72 198 3.5 0.0 0.00 0.00 0.00 35 1010.1
20260504231036 72 183 3.5 0.0 0.00 0.00 0.00 35 1010.1
20260504230939 72 211 3.5 0.0 0.00 0.00 0.00 35 1010.1
20260504230901 72 226 4.3 0.0 0.00 0.00 0.00 35 1010.1
20260504230742 72 207 4.3 0.0 0.00 0.00 0.00 35 1010.1
20260504230623 72 188 3.5 0.0 0.00 0.00 0.00 35 1010.1
20260504230530 72 195 4.3 0.0 0.00 0.00 0.00 35 1010.1
20260504230426 72 176 3.5 0.0 0.00 0.00 0.00 35 1010.1
20260504230328 72 213 3.5 0.0 0.00 0.00 0.00 35 1010.1
20260504230227 72 209 4.3 0.0 0.00 0.00 0.00 35 1010.1
20260504230128 72 202 3.5 0.0 0.00 0.00 0.00 35 1010.1
20260504230030 72 178 3.5 0.0 0.00 0.00 0.00 34 1010.1
20260504225931 72 158 3.5 0.0 0.00 0.00 0.00 34 1010.1
20260504225833 72 195 2.6 0.0 0.00 0.00 0.00 34 1010.0
20260504225736 72 230 2.6 0.0 0.00 0.00 0.00 34 1010.0
20260504225701 72 178 2.6 0.0 0.00 0.00 0.00 34 1010.0
20260504225542 72 138 3.5 0.0 0.00 0.00 0.00 34 1010.0
20260504225441 72 170 2.6 0.0 0.00 0.00 0.00 34 1010.0
20260504225342 73 193 2.6 0.0 0.00 0.00 0.00 34 1010.0
20260504225239 73 180 2.6 0.0 0.00 0.00 0.00 34 1010.0
20260504225144 73 109 2.6 0.0 0.00 0.00 0.00 34 1010.0
20260504225105 73 192 2.6 0.0 0.00 0.00 0.00 34 1010.0
20260504224944 73 130 2.6 0.0 0.00 0.00 0.00 34 1010.0
20260504224825 73 209 2.6 0.0 0.00 0.00 0.00 34 1010.0
20260504224747 73 163 2.6 0.0 0.00 0.00 0.00 34 1010.0
20260504224624 73 138 1.7 0.0 0.00 0.00 0.00 33 1010.0
20260504224546 73 163 1.7 0.0 0.00 0.00 0.00 34 1010.0
20260504224429 73 153 1.7 0.0 0.00 0.00 0.00 33 1010.0
20260504224350 73 187 1.7 0.0 0.00 0.00 0.00 34 1010.2
20260504224228 73 222 1.7 0.0 0.00 0.00 0.00 34 1010.2
20260504224133 73 180 2.6 0.0 0.00 0.00 0.00 34 1010.2
20260504224035 73 144 2.6 0.0 0.00 0.00 0.00 33 1010.2
20260504223959 73 180 2.6 0.0 0.00 0.00 0.00 33 1010.2
20260504223835 73 226 2.6 0.0 0.00 0.00 0.00 34 1010.2
20260504223741 73 170 2.6 0.0 0.00 0.00 0.00 34 1010.2
20260504223638 73 205 2.6 0.0 0.00 0.00 0.00 34 1010.2
20260504223541 73 174 3.5 0.0 0.00 0.00 0.00 33 1010.2
20260504223438 73 222 3.5 0.0 0.00 0.00 0.00 33 1010.2
20260504223340 73 247 4.3 0.0 0.00 0.00 0.00 33 1010.2
20260504223221 73 181 3.5 0.0 0.00 0.00 0.00 33 1010.2
20260504223129 73 236 3.5 0.0 0.00 0.00 0.00 33 1010.2
20260504223028 73 221 3.5 0.0 0.00 0.00 0.00 33 1010.2
20260504222928 73 239 3.5 0.0 0.00 0.00 0.00 33 1010.2
20260504222826 73 193 2.6 0.0 0.00 0.00 0.00 33 1010.2
20260504222728 73 223 2.6 0.0 0.00 0.00 0.00 33 1010.2
20260504222629 73 183 2.6 0.0 0.00 0.00 0.00 33 1010.2
20260504222534 73 165 2.6 0.0 0.00 0.00 0.00 33 1010.2
20260504222434 73 178 1.7 0.0 0.00 0.00 0.00 33 1010.2
20260504222334 73 196 1.7 0.0 0.00 0.00 0.00 33 1010.2
20260504222257 73 115 1.7 0.0 0.00 0.00 0.00 33 1010.2
20260504222137 73 217 1.7 0.0 0.00 0.00 0.00 33 1010.2
20260504222036 73 262 1.7 0.0 0.00 0.00 0.00 33 1010.2
20260504221956 73 197 2.6 0.0 0.00 0.00 0.00 33 1010.2
20260504221854 73 155 2.6 0.0 0.00 0.00 0.00 33 1010.2
20260504221734 73 222 2.6 0.0 0.00 0.00 0.00 33 1010.2
20260504221635 73 207 2.6 0.0 0.00 0.00 0.00 33 1010.2
20260504221536 73 233 2.6 0.0 0.00 0.00 0.00 33 1010.2
20260504221436 73 236 3.5 0.0 0.00 0.00 0.00 33 1010.2
20260504221337 73 253 3.5 0.0 0.00 0.00 0.00 33 1010.4
20260504221235 73 323 4.3 0.0 0.00 0.00 0.00 33 1010.4
20260504221136 73 166 5.2 0.0 0.00 0.00 0.00 33 1010.4
20260504221055 73 213 4.3 0.0 0.00 0.00 0.00 32 1010.4
20260504220939 73 179 4.3 0.0 0.00 0.00 0.00 33 1010.4
20260504220837 73 180 4.3 0.0 0.00 0.00 0.00 33 1010.4
20260504220721 73 212 4.3 0.0 0.00 0.00 0.00 33 1010.4
20260504220647 73 184 4.3 0.0 0.00 0.00 0.00 33 1010.4
20260504220602 73 184 4.3 0.0 0.00 0.00 0.00 32 1010.4
20260504220426 73 208 4.3 0.0 0.00 0.00 0.00 32 1010.4
20260504220348 73 260 3.5 0.0 0.00 0.00 0.00 32 1010.4
20260504220229 74 178 2.6 0.0 0.00 0.00 0.00 32 1010.4
20260504220129 74 182 1.7 0.0 0.00 0.00 0.00 33 1010.4
20260504220032 74 163 2.6 0.0 0.00 0.00 0.00 33 1010.4
20260504215932 74 157 2.6 0.0 0.00 0.00 0.00 33 1010.4
20260504215830 74 178 2.6 0.0 0.00 0.00 0.00 33 1010.5
20260504215732 74 266 2.6 0.0 0.00 0.00 0.00 33 1010.5
20260504215633 73 190 3.5 0.0 0.00 0.00 0.00 33 1010.5
20260504215535 73 190 3.5 0.0 0.00 0.00 0.00 33 1010.5
20260504215434 73 271 3.5 0.0 0.00 0.00 0.00 33 1010.5
20260504215340 73 211 4.3 0.0 0.00 0.00 0.00 33 1010.5
20260504215238 73 268 4.3 0.0 0.00 0.00 0.00 33 1010.5
20260504215143 73 188 5.2 0.0 0.00 0.00 0.00 33 1010.5
20260504215029 73 205 4.3 0.0 0.00 0.00 0.00 33 1010.5
20260504214933 73 215 4.3 0.0 0.00 0.00 0.00 32 1010.5
20260504214834 73 241 4.3 0.0 0.00 0.00 0.00 32 1010.5
20260504214755 73 209 4.3 0.0 0.00 0.00 0.00 32 1010.5
20260504214632 73 179 4.3 0.0 0.00 0.00 0.00 33 1010.5
20260504214533 73 185 4.3 0.0 0.00 0.00 0.00 32 1010.5
20260504214435 73 180 4.3 0.0 0.00 0.00 0.00 32 1010.5
20260504214341 73 180 3.5 0.0 0.00 0.00 0.00 32 1010.5
20260504214241 74 175 3.5 0.0 0.00 0.00 0.00 32 1010.5
20260504214144 74 167 3.5 0.0 0.00 0.00 0.00 33 1010.5
20260504214106 73 192 4.3 0.0 0.00 0.00 0.00 33 1010.5
20260504213944 73 251 4.3 0.0 0.00 0.00 0.00 32 1010.5
20260504213843 73 230 4.3 0.0 0.00 0.00 0.00 32 1010.5
20260504213724 73 195 3.5 0.0 0.00 0.00 0.00 32 1010.5
20260504213649 73 178 3.5 0.0 0.00 0.00 0.00 32 1010.5
20260504213550 74 188 2.6 0.0 0.00 0.00 0.00 32 1010.5
20260504213449 74 259 2.6 0.0 0.00 0.00 0.00 32 1010.5
20260504213329 74 184 2.6 0.0 0.00 0.00 0.00 32 1010.5
20260504213247 74 161 2.6 0.0 0.00 0.00 0.00 32 1010.5
20260504213147 74 203 2.6 0.0 0.00 0.00 0.00 32 1010.5
20260504213044 74 190 2.6 0.0 0.00 0.00 0.00 32 1010.5
20260504212945 74 315 2.6 0.0 0.00 0.00 0.00 32 1010.5
20260504212844 74 189 2.6 0.0 0.00 0.00 0.00 32 1010.6
20260504212732 74 216 2.6 0.0 0.00 0.00 0.00 32 1010.6
20260504212629 74 249 2.6 0.0 0.00 0.00 0.00 32 1010.6
20260504212531 74 205 3.5 0.0 0.00 0.00 0.00 32 1010.6
20260504212448 74 186 3.5 0.0 0.00 0.00 0.00 32 1010.6
20260504212328 74 290 3.5 0.0 0.00 0.00 0.00 32 1010.6
20260504212248 74 170 2.6 0.0 0.00 0.00 0.00 32 1010.6
20260504212132 74 12 2.6 0.0 0.00 0.00 0.00 32 1010.6
20260504212033 74 236 2.6 0.0 0.00 0.00 0.00 33 1010.6
20260504211934 74 253 2.6 0.0 0.00 0.00 0.00 32 1010.6
20260504211834 74 155 2.6 0.0 0.00 0.00 0.00 33 1010.6
20260504211735 74 210 2.6 0.0 0.00 0.00 0.00 32 1010.6
20260504211656 74 196 2.6 0.0 0.00 0.00 0.00 32 1010.6
20260504211541 74 199 2.6 0.0 0.00 0.00 0.00 32 1010.6
20260504211441 74 201 2.6 0.0 0.00 0.00 0.00 31 1010.6
20260504211403 74 277 2.6 0.0 0.00 0.00 0.00 32 1010.5
20260504211224 74 234 3.5 0.0 0.00 0.00 0.00 32 1010.5
20260504211126 74 329 3.5 0.0 0.00 0.00 0.00 32 1010.5
20260504211027 74 251 3.5 0.0 0.00 0.00 0.00 32 1010.5
20260504210951 74 163 4.3 0.0 0.00 0.00 0.00 32 1010.5
20260504210850 74 205 3.5 0.0 0.00 0.00 0.00 32 1010.5
20260504210733 73 172 3.5 0.0 0.00 0.00 0.00 32 1010.5
20260504210634 73 157 3.5 0.0 0.00 0.00 0.00 32 1010.5
20260504210559 74 271 2.6 0.0 0.00 0.00 0.00 32 1010.5
20260504210500 74 243 2.6 0.0 0.00 0.00 0.00 32 1010.5
20260504210340 74 276 2.6 0.0 0.00 0.00 0.00 32 1010.5
20260504210301 74 143 2.6 0.0 0.00 0.00 0.00 32 1010.5
20260504210141 74 176 2.6 0.0 0.00 0.00 0.00 31 1010.5
20260504210043 74 305 2.6 0.0 0.00 0.00 0.00 31 1010.5
20260504210003 74 322 1.7 0.0 0.00 0.00 0.00 31 1010.5
20260504205837 74 282 1.7 0.0 0.00 0.00 0.00 31 1010.5
20260504205742 74 306 1.7 0.0 0.00 0.00 0.00 31 1010.5
20260504205624 74 292 1.7 0.0 0.00 0.00 0.00 32 1010.5
20260504205529 74 296 2.6 0.0 0.00 0.00 0.00 32 1010.5
20260504205445 74 192 1.7 0.0 0.00 0.00 0.00 32 1010.5
20260504205327 74 195 2.6 0.0 0.00 0.00 0.00 32 1010.5
20260504205228 74 200 2.6 0.0 0.00 0.00 0.00 32 1010.5
20260504205129 74 197 2.6 0.0 0.00 0.00 0.00 32 1010.5
20260504205032 74 249 2.6 0.0 0.00 0.00 0.00 32 1010.5
20260504204933 73 164 2.6 0.0 0.00 0.00 0.00 32 1010.5
20260504204858 73 135 3.5 0.0 0.00 0.00 0.00 32 1010.5
20260504204739 73 192 3.5 0.0 0.00 0.00 0.00 32 1010.5
20260504204640 73 159 3.5 0.0 0.00 0.00 0.00 31 1010.5
20260504204542 73 170 3.5 0.0 0.00 0.00 0.00 32 1010.5
20260504204439 73 247 3.5 0.0 0.00 0.00 0.00 31 1010.5
20260504204324 73 263 3.5 0.0 0.00 0.00 0.00 31 1010.5
20260504204225 74 226 3.5 0.0 0.00 0.00 0.00 31 1010.5
20260504204127 74 209 2.6 0.0 0.00 0.00 0.00 31 1010.5
20260504204026 74 206 2.6 0.0 0.00 0.00 0.00 31 1010.5
20260504203927 74 246 2.6 0.0 0.00 0.00 0.00 31 1010.5
20260504203826 74 194 1.7 0.0 0.00 0.00 0.00 31 1010.5
20260504203735 74 241 1.7 0.0 0.00 0.00 0.00 32 1010.5
20260504203655 74 244 1.7 0.0 0.00 0.00 0.00 31 1010.5
20260504203556 74 144 1.7 0.0 0.00 0.00 0.00 31 1010.5
20260504203432 74 171 1.7 0.0 0.00 0.00 0.00 31 1010.5
20260504203333 74 127 1.7 0.0 0.00 0.00 0.00 31 1010.5
20260504203235 74 163 1.7 0.0 0.00 0.00 0.00 31 1010.5
20260504203138 74 197 2.6 0.0 0.00 0.00 0.00 31 1010.5
20260504203044 74 245 2.6 0.0 0.00 0.00 0.00 31 1010.5
20260504203004 74 165 2.6 0.0 0.00 0.00 0.00 30 1010.5
20260504202824 74 184 2.6 0.0 0.00 0.00 0.00 30 1010.5
20260504202726 74 195 2.6 0.0 0.00 0.00 0.00 31 1010.5
20260504202627 74 172 2.6 0.0 0.00 0.00 0.00 31 1010.5
20260504202528 74 169 2.6 0.0 0.00 0.00 0.00 32 1010.5
20260504202425 74 169 2.6 0.0 0.00 0.00 0.00 32 1010.5
20260504202331 74 173 3.5 0.0 0.00 0.00 0.00 32 1010.5
20260504202248 74 192 3.5 0.0 0.00 0.00 0.00 32 1010.5
20260504202131 74 187 3.5 0.0 0.00 0.00 0.00 31 1010.5
20260504202030 74 219 3.5 0.0 0.00 0.00 0.00 32 1010.5
20260504201932 74 160 3.5 0.0 0.00 0.00 0.00 32 1010.5
20260504201831 73 216 3.5 0.0 0.00 0.00 0.00 31 1010.5
20260504201731 73 182 4.3 0.0 0.00 0.00 0.00 31 1010.5
20260504201636 74 217 4.3 0.0 0.00 0.00 0.00 32 1010.5
20260504201559 73 181 4.3 0.0 0.00 0.00 0.00 32 1010.5
20260504201434 73 224 4.3 0.0 0.00 0.00 0.00 32 1010.5
20260504201335 73 240 4.3 0.0 0.00 0.00 0.00 32 1010.6
20260504201253 73 138 4.3 0.0 0.00 0.00 0.00 32 1010.6
20260504201132 73 178 4.3 0.0 0.00 0.00 0.00 32 1010.6
20260504201036 73 163 3.5 0.0 0.00 0.00 0.00 32 1010.6
20260504200955 73 240 3.5 0.0 0.00 0.00 0.00 32 1010.6
20260504200836 73 210 3.5 0.0 0.00 0.00 0.00 31 1010.6
20260504200738 73 195 3.5 0.0 0.00 0.00 0.00 31 1010.6
20260504200642 73 242 2.6 0.0 0.00 0.00 0.00 31 1010.6
20260504200604 73 178 2.6 0.0 0.00 0.00 0.00 31 1010.6
20260504200443 73 280 2.6 0.0 0.00 0.00 0.00 31 1010.6
20260504200325 73 170 3.5 0.0 0.00 0.00 0.00 31 1010.6
20260504200225 73 219 3.5 0.0 0.00 0.00 0.00 31 1010.6
20260504200131 73 190 4.3 0.0 0.00 0.00 0.00 31 1010.6
20260504200052 73 187 4.3 0.0 0.00 0.00 0.00 31 1010.6
20260504195932 73 197 4.3 0.0 0.00 0.00 0.00 31 1010.6
20260504195830 73 181 4.3 0.0 0.00 0.00 0.00 31 1010.9
20260504195751 73 168 3.5 0.0 0.00 0.00 0.00 32 1010.9
20260504195628 73 184 4.3 0.0 0.00 0.00 0.00 31 1010.9
20260504195531 73 164 3.5 0.0 0.00 0.00 0.00 31 1010.9
20260504195435 73 145 3.5 0.0 0.00 0.00 0.00 31 1010.9
20260504195358 73 171 3.5 0.0 0.00 0.00 0.00 31 1010.9
20260504195239 73 272 3.5 0.0 0.00 0.00 0.00 31 1010.9
20260504195142 73 173 3.5 0.0 0.00 0.00 0.00 32 1010.9
20260504195041 73 178 3.5 0.0 0.00 0.00 0.00 31 1010.9
20260504194941 73 237 2.6 0.0 0.00 0.00 0.00 32 1010.9
20260504194839 73 149 3.5 0.0 0.00 0.00 0.00 31 1010.9
20260504194724 73 213 3.5 0.0 0.00 0.00 0.00 32 1010.9
20260504194625 73 184 4.3 0.0 0.00 0.00 0.00 32 1010.9
20260504194527 73 181 4.3 0.0 0.00 0.00 0.00 32 1010.9
20260504194426 73 178 4.3 0.0 0.00 0.00 0.00 31 1010.9
20260504194327 73 153 4.3 0.0 0.00 0.00 0.00 31 1011.0
20260504194246 72 149 4.3 0.0 0.00 0.00 0.00 32 1011.0
20260504194131 73 123 4.3 0.0 0.00 0.00 0.00 32 1011.0
20260504194035 73 188 3.5 0.0 0.00 0.00 0.00 32 1011.0
20260504193939 73 237 3.5 0.0 0.00 0.00 0.00 32 1011.0
20260504193840 73 245 4.3 0.0 0.00 0.00 0.00 32 1011.0
20260504193802 73 233 4.3 0.0 0.00 0.00 0.00 32 1011.0
20260504193639 73 199 4.3 0.0 0.00 0.00 0.00 31 1011.0
20260504193545 73 176 4.3 0.0 0.00 0.00 0.00 32 1011.0
20260504193427 73 203 4.3 0.0 0.00 0.00 0.00 31 1011.0
20260504193351 73 188 3.5 0.0 0.00 0.00 0.00 32 1011.0
20260504193231 73 180 3.5 0.0 0.00 0.00 0.00 32 1011.0
20260504193137 73 175 4.3 0.0 0.00 0.00 0.00 32 1011.0
20260504193038 73 91 4.3 0.0 0.00 0.00 0.00 32 1011.0
20260504192938 73 184 5.2 0.0 0.00 0.00 0.00 31 1011.0
20260504192839 73 230 4.3 0.0 0.00 0.00 0.00 31 1011.1
20260504192726 73 192 5.2 0.0 0.00 0.00 0.00 32 1011.1
20260504192627 73 170 4.3 0.0 0.00 0.00 0.00 33 1011.1
20260504192529 73 200 4.3 0.0 0.00 0.00 0.00 32 1011.1
20260504192425 72 170 4.3 0.0 0.00 0.00 0.00 32 1011.1
20260504192327 72 154 5.2 0.0 0.00 0.00 0.00 32 1011.1
20260504192245 72 203 5.2 0.0 0.00 0.00 0.00 32 1011.1
20260504192146 72 192 5.2 0.0 0.00 0.00 0.00 31 1011.1
20260504192028 72 183 4.3 0.0 0.00 0.00 0.00 31 1011.1
20260504191932 72 166 4.3 0.0 0.00 0.00 0.00 32 1011.1
20260504191829 73 208 4.3 0.0 0.00 0.00 0.00 31 1011.1
20260504191730 73 176 3.5 0.0 0.00 0.00 0.00 32 1011.1
20260504191627 73 193 3.5 0.0 0.00 0.00 0.00 32 1011.1
20260504191529 73 262 2.6 0.0 0.00 0.00 0.00 31 1011.1
20260504191430 73 282 2.6 0.0 0.00 0.00 0.00 32 1011.1
20260504191331 73 156 2.6 0.0 0.00 0.00 0.00 32 1011.2
20260504191233 73 199 2.6 0.0 0.00 0.00 0.00 31 1011.2
20260504191134 73 205 2.6 0.0 0.00 0.00 0.00 32 1011.2
20260504191055 73 211 2.6 0.0 0.00 0.00 0.00 32 1011.2
20260504190936 73 183 2.6 0.0 0.00 0.00 0.00 32 1011.2
20260504190837 73 233 2.6 0.0 0.00 0.00 0.00 33 1011.2
20260504190737 73 171 3.5 0.0 0.00 0.00 0.00 33 1011.2
20260504190642 73 179 3.5 0.0 0.00 0.00 0.00 33 1011.2
20260504190545 72 172 3.5 0.0 0.00 0.00 0.00 33 1011.2
20260504190506 72 166 3.5 0.0 0.00 0.00 0.00 33 1011.2
20260504190407 72 175 4.3 0.0 0.00 0.00 0.00 32 1011.2
20260504190223 72 215 4.3 0.0 0.00 0.00 0.00 32 1011.2
20260504190128 72 241 4.3 0.0 0.00 0.00 0.00 33 1011.2
20260504190027 72 183 4.3 0.0 0.00 0.00 0.00 33 1011.2
20260504185930 72 157 4.3 0.0 0.00 0.00 0.00 32 1011.2
20260504185832 72 230 3.5 0.0 0.00 0.00 0.00 32 1011.4
20260504185734 72 155 3.5 0.0 0.00 0.00 0.00 33 1011.4
20260504185630 72 161 3.5 0.0 0.00 0.00 0.00 32 1011.4
20260504185552 72 136 4.3 0.0 0.00 0.00 0.00 32 1011.4
20260504185428 72 162 4.3 0.0 0.00 0.00 0.00 32 1011.4
20260504185330 72 217 4.3 0.0 0.00 0.00 0.00 32 1011.4
20260504185232 72 210 3.5 0.0 0.00 0.00 0.00 32 1011.4
20260504185133 73 187 3.5 0.0 0.00 0.00 0.00 33 1011.4
20260504185059 73 174 3.5 0.0 0.00 0.00 0.00 33 1011.4
20260504184942 73 211 3.5 0.0 0.00 0.00 0.00 32 1011.4
20260504184839 73 230 3.5 0.0 0.00 0.00 0.00 32 1011.4
20260504184739 73 250 2.6 0.0 0.00 0.00 0.00 32 1011.4
20260504184638 73 202 2.6 0.0 0.00 0.00 0.00 32 1011.4
20260504184544 73 213 2.6 0.0 0.00 0.00 0.00 32 1011.4
20260504184441 73 211 2.6 0.0 0.00 0.00 0.00 33 1011.4
20260504184344 73 184 3.5 0.0 0.00 0.00 0.00 34 1011.6
20260504184222 72 168 3.5 0.0 0.00 0.00 0.00 33 1011.6
20260504184126 73 177 3.5 0.0 0.00 0.00 0.00 33 1011.6
20260504184028 72 210 3.5 0.0 0.00 0.00 0.00 34 1011.6
20260504183933 72 139 3.5 0.0 0.00 0.00 0.00 34 1011.6
20260504183837 72 122 3.5 0.0 0.00 0.00 0.00 34 1011.6
20260504183759 72 122 3.5 0.0 0.00 0.00 0.00 33 1011.6
20260504183657 72 194 3.5 0.0 0.00 0.00 0.00 33 1011.6
20260504183536 72 227 2.6 0.0 0.00 0.00 0.00 34 1011.6
20260504183434 72 278 2.6 0.0 0.00 0.00 0.00 34 1011.6
20260504183335 72 240 2.6 0.0 0.00 0.00 0.00 33 1011.6
20260504183220 72 190 2.6 0.0 0.00 0.00 0.00 34 1011.6
20260504183126 72 147 2.6 0.0 0.00 0.00 0.00 34 1011.6
20260504183026 72 201 2.6 0.0 0.00 0.00 0.00 35 1011.6
20260504182927 72 227 3.5 0.0 0.00 0.00 0.00 35 1011.6
20260504182829 72 122 3.5 0.0 0.00 0.00 0.00 35 1012.0
20260504182730 72 191 3.5 0.0 0.00 0.00 0.00 35 1012.0
20260504182631 71 157 4.3 0.0 0.00 0.00 0.00 35 1012.0
20260504182532 71 203 5.2 0.0 0.00 0.00 0.00 35 1012.0
20260504182429 71 178 5.2 0.0 0.00 0.00 0.00 34 1012.0
20260504182351 71 284 5.2 0.0 0.00 0.00 0.00 34 1012.0
20260504182233 71 226 5.2 0.0 0.00 0.00 0.00 34 1012.0
20260504182134 71 215 5.2 0.0 0.00 0.00 0.00 34 1012.0
20260504182037 71 194 5.2 0.0 0.00 0.00 0.00 34 1012.0
20260504181941 71 190 4.3 0.0 0.00 0.00 0.00 34 1012.0
20260504181841 71 219 4.3 0.0 0.00 0.00 0.00 34 1012.0
20260504181743 71 180 4.3 0.0 0.00 0.00 0.00 35 1012.0
20260504181644 71 192 4.3 0.0 0.00 0.00 0.00 35 1012.0
20260504181606 72 186 4.3 0.0 0.00 0.00 0.00 35 1012.0
20260504181442 72 155 4.3 0.0 0.00 0.00 0.00 35 1012.0
20260504181344 72 169 4.3 0.0 0.00 0.00 0.00 35 1012.1
20260504181226 72 166 3.5 0.0 0.00 0.00 0.00 35 1012.1
20260504181128 72 249 3.5 0.0 0.00 0.00 0.00 35 1012.1
20260504181027 72 126 3.5 0.0 0.00 0.00 0.00 35 1012.1
20260504180931 72 188 3.5 0.0 0.00 0.00 0.00 34 1012.1
20260504180832 72 264 3.5 0.0 0.00 0.00 0.00 34 1012.1
20260504180732 72 203 3.5 0.0 0.00 0.00 0.00 34 1012.1
20260504180639 72 174 3.5 0.0 0.00 0.00 0.00 35 1012.1
20260504180544 72 200 2.6 0.0 0.00 0.00 0.00 35 1012.1
20260504180421 72 147 3.5 0.0 0.00 0.00 0.00 34 1012.1
20260504180347 72 180 4.3 0.0 0.00 0.00 0.00 34 1012.1
20260504180225 72 197 5.2 0.0 0.00 0.00 0.00 35 1012.1
20260504180146 72 177 4.3 0.0 0.00 0.00 0.00 35 1012.1
20260504180027 72 159 4.3 0.0 0.00 0.00 0.00 35 1012.1
20260504175928 71 205 4.3 0.0 0.00 0.00 0.00 35 1012.1
20260504175826 71 176 4.3 0.0 0.00 0.00 0.00 34 1012.4
20260504175728 71 180 4.3 0.0 0.00 0.00 0.00 34 1012.4
20260504175629 71 226 3.5 0.0 0.00 0.00 0.00 35 1012.4
20260504175555 71 176 3.5 0.0 0.00 0.00 0.00 35 1012.4
20260504175430 71 240 2.6 0.0 0.00 0.00 0.00 35 1012.4
20260504175334 71 151 2.6 0.0 0.00 0.00 0.00 35 1012.4
20260504175235 71 240 2.6 0.0 0.00 0.00 0.00 35 1012.4
20260504175138 71 222 3.5 0.0 0.00 0.00 0.00 35 1012.4
20260504175040 71 159 3.5 0.0 0.00 0.00 0.00 34 1012.4
20260504175001 71 198 4.3 0.0 0.00 0.00 0.00 35 1012.4
20260504174841 71 187 4.3 0.0 0.00 0.00 0.00 34 1012.4
20260504174742 70 267 5.2 0.0 0.00 0.00 0.00 35 1012.4
20260504174624 70 186 5.2 0.0 0.00 0.00 0.00 35 1012.4
20260504174530 70 174 5.2 0.0 0.00 0.00 0.00 34 1012.4
20260504174427 70 242 5.2 0.0 0.00 0.00 0.00 34 1012.4
20260504174348 70 243 5.2 0.0 0.00 0.00 0.00 34 1012.4
20260504174247 70 180 5.2 0.0 0.00 0.00 0.00 34 1012.4
20260504174127 70 169 5.2 0.0 0.00 0.00 0.00 33 1012.4
20260504174046 71 230 4.3 0.0 0.00 0.00 0.00 34 1012.4
20260504173945 71 209 4.3 0.0 0.00 0.00 0.00 34 1012.4
20260504173826 71 211 4.3 0.0 0.00 0.00 0.00 34 1012.4
20260504173727 71 151 3.5 0.0 0.00 0.00 0.00 34 1012.4
20260504173650 71 168 3.5 0.0 0.00 0.00 0.00 34 1012.4
20260504173531 71 169 3.5 0.0 0.00 0.00 0.00 34 1012.4
20260504173427 71 182 3.5 0.0 0.00 0.00 0.00 34 1012.4
20260504173327 71 198 3.5 0.0 0.00 0.00 0.00 34 1012.4
20260504173226 71 286 3.5 0.0 0.00 0.00 0.00 35 1012.4
20260504173131 71 177 3.5 0.0 0.00 0.00 0.00 35 1012.4
20260504173030 71 191 3.5 0.0 0.00 0.00 0.00 34 1012.4
20260504172930 71 226 3.5 0.0 0.00 0.00 0.00 35 1012.4
20260504172831 70 143 2.6 0.0 0.00 0.00 0.00 35 1012.7
20260504172733 70 296 3.5 0.0 0.00 0.00 0.00 34 1012.7
20260504172655 70 278 3.5 0.0 0.00 0.00 0.00 34 1012.7
20260504172556 71 264 3.5 0.0 0.00 0.00 0.00 34 1012.7
20260504172439 71 174 3.5 0.0 0.00 0.00 0.00 34 1012.7
20260504172340 71 155 3.5 0.0 0.00 0.00 0.00 34 1012.7
20260504172301 71 251 3.5 0.0 0.00 0.00 0.00 35 1012.7
20260504172141 71 222 4.3 0.0 0.00 0.00 0.00 34 1012.7
20260504172040 70 176 4.3 0.0 0.00 0.00 0.00 35 1012.7
20260504171941 70 176 4.3 0.0 0.00 0.00 0.00 35 1012.7
20260504171839 70 223 4.3 0.0 0.00 0.00 0.00 35 1012.7
20260504171745 70 175 4.3 0.0 0.00 0.00 0.00 35 1012.7
20260504171643 70 138 5.2 0.0 0.00 0.00 0.00 35 1012.7
20260504171545 70 182 4.3 0.0 0.00 0.00 0.00 35 1012.7
20260504171425 70 163 4.3 0.0 0.00 0.00 0.00 35 1012.7
20260504171326 70 227 4.3 0.0 0.00 0.00 0.00 35 1012.8
20260504171247 70 191 4.3 0.0 0.00 0.00 0.00 35 1012.8
20260504171207 70 194 4.3 0.0 0.00 0.00 0.00 35 1012.8
20260504171028 70 198 3.5 0.0 0.00 0.00 0.00 35 1012.8
20260504170927 70 201 3.5 0.0 0.00 0.00 0.00 35 1012.8
20260504170825 70 203 3.5 0.0 0.00 0.00 0.00 35 1012.8
20260504170746 70 263 3.5 0.0 0.00 0.00 0.00 35 1012.8
20260504170643 70 261 3.5 0.0 0.00 0.00 0.00 35 1012.8
20260504170545 70 220 3.5 0.0 0.00 0.00 0.00 35 1012.8
20260504170426 70 228 4.3 0.0 0.00 0.00 0.00 35 1012.8
20260504170349 70 165 4.3 0.0 0.00 0.00 0.00 35 1012.8
20260504170226 70 176 4.3 0.0 0.00 0.00 0.00 35 1012.8
20260504170148 70 284 4.3 0.0 0.00 0.00 0.00 35 1012.8